GFSNE_sfc_rhum_000.txt.gz
RH
29 33 32 31 34 36 38 46 51 65 52 40 36 26 25 26 35 36 34 47 60 62 58 61 59 74 75 74 71 76 81 83 83 83 83 86 88 90
26 29 33 31 34 30 32 33 37 46 54 37 36 35 31 32 39 35 36 55 58 52 55 62 65 57 62 70 79 83 86 86 84 80 80 82 83 83
27 29 32 32 32 29 32 34 36 38 52 46 40 37 36 37 34 35 40 39 36 54 60 67 62 66 69 74 74 74 79 84 82 80 78 79 80 86
28 30 31 26 35 32 33 36 40 39 51 60 45 42 42 41 41 40 33 31 37 44 52 58 65 68 70 71 78 74 76 80 86 89 84 83 84 82
29 31 32 33 37 36 37 38 42 40 53 57 57 51 49 44 48 47 46 40 35 52 51 51 58 62 70 75 70 73 78 83 88 89 92 92 89 86
32 35 34 36 37 44 42 46 46 53 51 60 66 60 55 51 47 50 50 50 54 44 52 57 62 68 66 69 73 75 86 89 88 88 88 89 92 92
36 34 36 43 52 49 44 53 58 58 64 68 69 63 57 55 56 55 60 59 64 60 68 64 64 65 65 63 66 70 74 79 85 84 82 84 87 88
39 37 34 43 42 55 58 61 56 67 80 90 71 63 59 57 52 62 73 78 84 70 63 68 61 67 60 58 68 76 76 74 79 83 78 81 84 86
38 37 35 32 49 51 55 55 68 73 60 57 65 64 64 62 67 81 84 81 78 64 71 84 68 78 66 61 66 73 80 83 82 85 86 85 85 88
36 37 38 46 52 47 48 86 62 49 48 42 51 64 74 67 64 66 82 84 80 74 73 96 77 78 71 84 85 79 80 84 83 86 87 87 84 88
37 38 49 52 52 55 92 85 60 52 45 58 62 60 60 63 65 74 90 93 86 80 75 88 86 92 89 80 75 78 84 88 90 91 87 85 88 91
44 49 56 47 59 71 57 55 70 57 61 62 53 55 59 61 64 71 88 96 93 90 80 97 86 91 85 82 93 84 84 80 97 94 94 93 94 98
62 54 44 67 71 56 54 50 59 55 62 58 61 64 64 66 70 72 78 88 95 93 78 94 94 90 87 86 80 83 94 97 98 96 91 93 90 91
58 48 68 61 55 55 55 61 60 60 58 66 72 74 76 79 80 81 83 85 85 91 86 99 97 94 92 88 83 82 98 99 99 98 98 91 90 90
48 84 59 55 54 54 57 58 58 59 66 75 81 83 81 83 86 86 88 88 89 98 95 100 97 93 95 93 87 91 96 98 99 98 98 98 98 96
79 57 49 51 53 54 51 51 55 59 67 78 84 83 80 82 83 82 92 88 94 90 100 99 96 97 95 93 93 95 94 98 98 98 98 98 98 97
58 47 43 45 55 52 54 56 59 62 71 78 88 84 81 84 85 85 92 96 96 95 93 93 96 96 97 97 95 94 92 94 97 98 96 96 97 97
52 49 56 63 65 61 61 62 64 71 79 88 86 86 91 92 93 92 96 96 94 93 93 93 93 94 94 92 94 92 92 93 96 98 89 85 93 98
53 65 68 68 68 68 70 74 79 82 93 92 92 93 93 93 94 95 95 94 93 93 93 92 90 95 93 92 91 95 90 93 93 92 88 86 89 95
64 71 72 69 69 73 76 81 89 89 90 91 93 94 94 95 95 95 95 95 89 84 84 86 91 94 95 95 91 93 96 93 90 91 92 93 94 87
67 69 68 71 74 77 79 89 92 92 92 94 93 94 94 95 94 92 87 82 79 83 85 87 91 83 92 92 87 88 86 75 73 78 80 79 70 61
65 70 71 74 77 82 92 92 92 92 93 93 93 92 92 93 85 77 67 71 75 78 80 84 86 85 83 78 82 84 78 77 77 78 77 76 63 66
72 73 77 78 81 90 92 93 93 93 92 93 92 91 91 87 72 66 62 75 88 89 90 90 90 84 84 81 81 81 85 77 74 85 88 92 82 75

GFSNE_sfc_rhum_003.txt.gz
RH
31 34 33 31 34 35 38 40 44 52 45 36 38 30 35 32 40 35 33 45 50 49 52 58 60 61 58 61 64 57 55 63 68 75 77 77 75 78
26 30 31 31 32 34 37 37 38 44 50 39 38 38 37 34 38 38 39 55 51 49 48 54 59 60 65 63 62 61 61 66 66 64 69 75 78 76
28 29 32 31 33 33 36 38 41 42 50 44 40 40 43 43 42 43 46 43 41 49 48 49 56 60 63 65 64 66 70 66 70 69 72 78 79 76
27 30 31 26 39 38 38 41 42 42 48 54 49 48 48 48 47 47 41 35 41 46 48 49 52 56 60 62 65 66 72 74 73 69 71 74 78 79
30 32 34 35 42 42 42 43 46 41 52 58 59 52 54 53 54 47 44 45 38 51 50 49 52 56 58 64 65 70 72 74 69 72 83 83 81 83
36 37 36 38 40 47 46 50 47 59 61 64 64 67 60 60 56 55 53 49 50 39 50 55 56 57 64 62 59 64 69 71 70 72 76 80 88 86
40 37 37 45 47 45 39 51 61 69 65 70 76 74 70 62 63 54 56 58 60 59 65 64 67 64 57 56 57 65 68 68 72 75 77 76 83 84
44 38 36 45 40 47 53 55 55 59 79 82 94 88 69 59 50 65 74 83 85 58 68 67 60 63 60 62 60 64 67 67 69 70 77 83 79 81
41 39 36 31 44 50 57 57 62 65 63 61 79 66 59 66 76 89 86 75 74 66 75 80 75 79 70 55 60 62 70 75 74 76 83 87 85 84
38 38 40 45 53 54 55 76 78 72 53 50 50 55 67 68 74 62 72 91 84 79 72 94 81 94 71 73 65 68 62 76 83 87 81 80 83 84
39 41 46 51 55 67 70 77 52 50 50 57 58 59 58 58 59 66 92 94 90 81 76 83 88 88 87 82 72 72 96 70 77 81 81 83 85 84
46 52 57 51 60 69 60 51 65 64 68 66 58 55 56 59 63 69 81 96 95 91 78 89 89 91 94 80 90 81 77 72 85 96 96 93 94 96
66 56 48 57 66 63 54 50 61 59 66 60 60 63 65 67 70 72 76 87 95 94 81 83 95 91 94 87 82 87 87 89 97 97 97 93 95 96
58 48 55 81 60 53 52 56 59 60 58 65 71 75 78 80 80 81 81 84 84 88 84 90 97 96 96 94 90 87 88 93 99 99 98 95 93 92
48 59 84 59 52 51 55 57 57 61 66 76 85 84 82 84 85 85 87 86 86 85 86 95 99 98 98 95 92 88 96 96 99 99 98 98 98 98
71 91 54 50 52 54 54 55 59 62 66 76 84 87 84 85 87 90 95 93 96 93 97 99 98 98 97 94 95 92 96 99 99 100 99 98 98 98
67 54 49 52 59 58 59 60 62 64 74 84 90 90 89 89 91 91 95 96 97 96 95 94 95 97 97 98 98 98 99 99 99 100 98 98 98 100
52 54 60 66 68 65 64 66 67 75 85 89 90 92 94 94 94 94 95 97 97 96 96 96 96 96 96 97 96 98 98 99 99 99 98 97 98 99
57 67 70 70 70 70 72 77 89 87 93 93 94 94 94 94 94 94 96 96 96 93 94 97 96 96 97 96 96 95 97 98 97 96 96 97 98 99
67 72 73 71 71 74 80 92 92 89 91 93 94 94 94 94 94 93 89 91 90 90 95 96 96 96 97 97 96 96 97 97 93 95 95 94 98 98
70 71 70 72 74 82 91 92 93 93 93 94 93 92 92 94 94 89 85 77 88 92 93 96 97 78 97 97 95 95 97 98 97 95 97 94 94 96
70 72 72 74 84 93 94 93 93 91 92 92 92 92 94 96 96 96 95 95 94 96 96 98 92 96 91 93 96 96 96 98 98 95 88 84 92 94
72 73 77 83 93 93 93 92 91 91 90 92 94 94 95 96 94 95 95 94 96 96 97 97 96 95 90 88 88 91 91 90 90 92 92 76 76 69

GFSNE_sfc_rhum_009.txt.gz
RH
47 48 51 42 39 44 51 52 55 66 57 44 46 40 44 40 41 41 41 49 52 54 54 54 53 54 52 55 52 51 51 51 53 54 51 64 59 54
34 42 42 37 39 43 48 56 60 58 67 49 47 45 41 37 46 43 44 53 55 57 55 54 53 51 53 52 54 51 52 53 55 57 58 64 65 61
41 42 44 44 46 47 51 52 58 63 65 54 47 44 48 52 48 50 53 50 51 58 59 53 52 52 52 52 54 56 54 53 52 52 54 66 79 73
47 50 51 44 56 54 54 55 60 58 60 61 53 57 60 55 57 62 51 49 59 58 55 53 52 52 54 54 54 59 63 63 60 60 63 69 69 75
53 57 57 56 61 59 57 59 56 49 58 64 82 65 63 70 76 70 70 64 44 50 53 53 54 56 60 58 56 56 56 61 59 57 62 72 59 68
58 61 56 60 60 62 55 54 50 59 62 65 68 90 85 75 64 59 56 56 61 47 51 58 63 66 57 59 60 59 62 61 64 61 60 66 68 79
61 55 55 58 58 51 48 54 56 61 71 92 96 87 72 61 60 58 70 76 69 63 69 83 60 60 61 65 63 65 63 70 63 76 84 64 60 67
63 55 56 56 53 56 58 59 59 66 96 97 95 77 65 61 60 73 89 93 88 63 68 71 65 68 67 64 69 64 59 60 63 72 71 72 60 60
58 60 56 46 58 59 64 63 70 78 78 72 70 69 66 65 92 94 79 76 78 69 76 86 72 76 64 63 64 62 66 72 74 73 68 64 61 63
62 61 60 60 65 60 59 68 83 94 73 58 60 61 78 76 58 58 69 84 84 73 70 90 74 76 67 64 68 67 68 83 85 88 96 89 87 70
54 56 63 64 65 59 61 96 87 70 54 59 72 68 60 59 61 65 92 94 88 78 73 83 85 86 82 79 72 73 70 72 69 71 68 68 67 66
59 68 70 61 58 62 85 70 73 59 69 82 56 57 61 64 67 71 89 96 93 92 75 90 91 91 94 81 86 88 79 72 76 86 83 74 72 73
82 75 70 64 81 70 59 53 57 59 62 62 64 66 67 71 71 75 87 96 95 94 80 89 95 93 93 93 88 89 87 88 82 88 93 95 89 85
71 65 65 92 59 58 58 60 61 61 62 69 76 82 82 87 88 88 91 94 93 96 93 97 97 97 96 94 90 87 86 88 96 96 97 98 98 97
61 74 78 60 59 58 62 62 63 67 75 90 88 88 87 90 93 93 91 89 88 88 90 96 98 97 97 94 94 92 95 91 97 98 99 98 99 99
79 77 59 57 61 62 60 59 63 70 82 91 92 88 88 93 93 92 95 91 95 88 81 88 97 98 96 97 97 93 94 98 96 98 98 99 98 98
60 58 56 62 68 64 64 64 68 75 88 87 91 91 90 91 91 89 94 94 95 95 92 88 89 92 96 98 96 96 96 97 98 99 99 99 98 98
61 62 71 75 75 70 70 76 78 82 86 90 90 91 94 94 94 92 91 96 96 94 95 95 96 91 95 94 96 96 97 98 99 99 99 98 98 98
66 75 80 78 76 77 83 89 90 84 88 89 93 94 94 93 92 93 93 94 94 94 95 96 97 97 96 96 93 99 97 97 98 97 98 98 98 98
74 79 80 77 79 87 90 92 91 89 89 92 94 93 94 94 94 94 94 96 96 95 94 95 96 98 97 97 97 97 99 98 97 97 98 97 99 97
76 76 75 81 88 90 90 91 91 92 91 93 93 94 94 95 93 94 94 88 91 95 95 96 97 94 98 96 96 95 97 100 99 98 98 98 98 97
74 78 81 83 89 92 93 92 93 91 92 92 93 94 93 94 96 95 93 95 94 96 97 97 96 97 96 94 96 96 95 92 96 98 97 98 99 98
82 86 85 89 91 92 92 91 91 91 90 94 94 93 93 95 96 95 95 95 96 97 98 97 96 97 97 97 94 96 94 92 94 97 98 98 97 98

GFSNE_sfc_rhum_012.txt.gz
RH
49 51 53 51 52 50 50 54 63 70 64 48 52 47 53 47 46 40 42 52 55 57 56 56 55 56 56 59 63 60 59 56 54 60 56 52 56 58
42 46 49 51 52 52 56 58 62 66 72 55 53 47 45 40 46 46 48 55 59 59 57 54 53 53 58 57 53 55 61 54 53 54 56 54 53 58
46 50 55 57 56 57 62 63 65 64 73 62 52 50 52 54 53 55 56 58 62 59 57 56 55 55 56 57 54 54 54 56 60 60 59 59 56 55
50 57 61 48 60 63 66 67 66 63 68 72 65 68 64 62 58 73 74 52 54 54 56 55 55 53 53 55 56 56 56 76 67 61 59 63 66 67
55 62 65 61 64 66 67 67 66 58 64 67 67 59 59 63 95 63 55 49 40 49 54 58 59 59 61 68 66 68 56 58 59 61 59 60 61 60
59 65 66 64 65 68 61 60 55 62 62 67 74 82 88 75 64 60 57 54 55 47 70 67 60 62 62 61 60 60 62 62 63 64 66 60 58 63
61 61 61 59 60 57 52 58 60 71 90 94 79 78 90 66 65 61 64 62 81 67 60 59 62 61 61 64 63 64 64 64 64 65 68 65 65 62
58 59 58 59 60 61 63 62 60 64 75 80 96 81 72 68 66 69 84 88 80 58 67 68 64 66 65 64 66 66 64 63 70 66 64 73 68 63
62 60 57 50 64 67 71 66 66 65 88 71 74 73 71 76 95 87 80 79 81 71 74 80 67 70 64 56 65 67 67 66 65 74 79 75 71 72
62 63 66 69 70 59 57 73 92 88 69 55 57 66 78 64 59 61 75 90 86 73 68 91 73 76 67 65 70 71 70 69 68 72 79 90 84 77
61 64 71 70 66 61 86 88 66 58 50 65 70 62 60 62 64 79 93 93 87 76 70 83 84 86 83 79 70 73 72 70 67 80 84 78 81 85
65 78 75 62 65 75 60 60 69 61 78 71 57 58 62 63 69 72 94 96 93 91 73 90 90 89 94 80 86 83 75 74 71 74 74 79 84 87
84 70 63 72 66 59 59 60 61 59 67 62 66 67 68 72 72 78 92 97 95 94 78 89 95 92 94 92 83 82 80 84 80 88 90 97 97 97
65 70 83 67 60 60 62 64 65 65 64 72 78 79 82 87 88 88 90 93 93 96 93 96 96 97 96 92 88 80 82 84 88 95 96 97 98 98
72 69 69 61 61 62 66 66 65 69 78 88 87 88 89 91 93 92 89 87 88 89 95 96 97 96 97 96 94 89 91 87 92 98 97 98 98 98
68 77 60 60 64 65 62 60 64 68 81 90 91 87 86 89 92 92 95 90 95 88 81 87 96 98 96 95 95 93 91 96 93 96 99 98 99 98
62 59 59 63 70 66 65 66 67 70 84 85 90 90 86 86 89 88 94 94 95 95 92 88 88 93 95 97 96 93 94 96 97 98 99 98 99 99
62 64 73 76 78 73 74 76 76 79 83 89 89 88 93 93 93 91 92 95 96 93 95 94 94 92 95 92 94 96 97 97 97 99 98 99 98 98
69 79 81 81 81 81 84 87 89 83 87 89 90 94 94 92 90 92 91 94 93 94 95 96 96 97 96 96 93 95 98 98 98 96 98 98 99 98
78 82 85 83 84 88 89 91 91 87 88 90 94 93 94 95 94 93 93 95 95 95 94 93 95 97 97 97 97 96 99 98 98 98 98 98 98 94
79 82 80 85 89 90 90 91 91 92 91 93 92 94 94 95 93 92 94 90 90 95 95 95 97 96 98 96 95 93 94 98 98 98 97 98 96 97
78 83 84 86 88 92 92 91 91 90 92 92 92 93 94 95 95 94 95 95 95 96 97 96 94 96 94 95 97 96 95 96 95 97 97 99 98 98
86 87 88 89 91 91 92 92 91 91 91 93 94 94 94 94 92 95 96 96 96 97 98 95 94 96 95 97 95 97 95 93 92 96 97 98 97 97

GFSNE_sfc_rhum_015.txt.gz
RH
52 53 53 53 57 61 63 63 70 78 71 59 60 52 54 54 51 46 45 52 55 57 57 56 56 55 55 55 56 56 56 59 67 68 65 66 62 58
46 50 53 57 61 67 69 66 69 76 86 62 60 55 52 46 50 48 49 55 59 62 61 57 56 54 54 55 57 60 61 65 70 67 63 63 64 59
51 52 58 61 68 63 66 70 75 75 84 70 61 58 63 62 56 55 57 62 88 73 62 56 54 53 54 54 60 64 61 62 63 63 65 63 63 64
53 58 62 49 69 68 71 74 74 71 77 85 77 62 56 54 55 59 82 58 62 55 57 55 54 56 57 64 61 61 65 63 64 66 73 77 71 67
58 62 63 68 71 69 69 71 73 62 74 70 70 62 64 70 73 93 58 53 43 50 55 57 60 62 61 59 57 61 67 66 65 66 63 64 64 62
60 64 66 69 70 70 68 66 66 69 68 75 83 86 73 76 86 60 58 55 57 48 59 66 62 58 60 62 61 59 60 61 62 63 64 66 66 65
61 63 61 63 60 56 52 59 60 68 87 94 79 91 80 62 65 62 65 67 80 83 61 58 58 59 60 64 62 63 64 66 66 70 73 75 71 71
67 63 64 61 63 62 64 62 61 67 82 97 92 69 68 66 64 75 93 80 86 60 64 75 66 65 62 63 66 66 66 65 66 69 71 72 69 74
69 66 63 53 66 72 74 68 89 84 67 66 70 67 67 79 93 91 88 88 83 70 76 87 67 70 62 56 66 68 68 67 66 67 68 75 73 70
70 69 70 69 78 64 74 96 77 74 61 53 59 70 74 64 61 70 87 92 84 69 64 93 73 75 66 65 71 72 71 70 67 68 69 68 67 82
68 68 70 73 67 67 74 76 65 61 54 65 72 64 63 65 67 80 92 93 86 74 68 81 82 85 80 78 70 73 71 68 64 64 66 67 69 70
78 77 68 60 64 69 61 60 74 63 88 82 60 61 64 66 70 71 94 96 93 90 73 90 90 90 93 78 84 77 74 74 71 70 71 72 73 88
62 68 65 73 66 61 61 63 65 69 69 66 68 69 69 69 70 75 89 97 95 94 78 88 95 91 93 91 82 82 82 82 80 76 78 91 96 97
75 72 73 69 63 62 64 68 67 66 66 72 79 80 81 84 85 85 87 92 94 96 93 96 96 96 95 92 90 81 82 83 88 91 94 94 97 98
69 66 69 64 63 64 68 68 67 70 74 88 88 87 86 87 88 87 87 86 86 87 92 95 97 95 97 96 94 90 92 86 89 96 97 97 98 98
66 80 62 62 65 67 65 62 66 68 75 86 89 86 84 86 88 86 92 90 94 86 81 85 96 98 96 94 96 94 92 97 92 93 97 98 98 99
63 61 62 66 72 69 67 68 68 70 81 83 90 90 87 86 87 85 92 93 94 94 91 87 86 89 93 97 96 93 95 96 98 98 98 97 98 99
65 68 76 78 79 76 77 78 77 81 83 89 89 90 92 92 92 88 89 93 95 93 94 93 93 91 87 90 92 96 96 98 98 98 98 98 97 97
73 82 84 83 84 84 86 90 91 85 89 92 92 93 94 92 90 91 91 92 91 92 94 95 96 96 94 94 90 83 98 98 98 97 98 98 98 97
80 86 87 84 85 89 90 91 90 88 89 90 94 93 94 94 94 93 93 95 95 94 93 92 94 96 97 97 97 95 98 98 98 98 98 99 98 84
82 84 82 86 89 90 90 90 91 93 92 94 93 94 94 95 92 92 94 89 91 94 95 94 96 93 96 94 93 89 96 97 98 98 97 98 93 93
82 85 84 87 91 92 92 91 92 90 91 92 93 94 93 94 94 94 94 95 95 96 96 94 93 94 96 98 96 95 95 92 97 94 97 99 98 97
87 86 87 89 91 92 92 91 92 91 92 94 94 94 94 94 92 92 94 96 96 96 96 96 94 97 94 98 94 96 94 94 94 96 97 99 97 97

GFSNE_sfc_rhum_018.txt.gz
RH
54 56 57 55 60 64 68 72 75 77 62 61 68 55 56 57 56 49 49 56 58 58 56 57 59 62 63 62 58 57 55 55 58 59 65 66 64 67
50 54 55 59 62 69 75 74 75 78 86 59 61 60 58 52 56 54 54 59 60 61 61 63 64 60 61 57 54 54 55 55 62 66 68 68 66 69
55 57 58 61 69 72 75 74 76 78 86 72 63 59 65 61 52 54 56 54 60 84 77 66 59 54 54 56 57 61 65 65 67 70 66 66 68 69
59 61 63 49 68 72 74 73 76 73 81 86 74 69 61 59 61 68 66 65 80 57 58 56 55 55 55 59 66 68 65 65 65 65 66 67 65 66
63 66 67 70 74 74 73 74 74 69 78 82 74 65 66 70 83 78 64 55 44 52 55 58 59 60 61 66 62 63 63 67 71 68 64 67 67 70
64 67 68 69 72 73 73 72 61 66 66 72 75 85 93 78 62 58 59 58 58 50 62 63 62 61 62 61 61 60 60 62 63 64 65 66 67 66
68 65 65 67 64 60 56 63 64 70 80 96 89 79 71 62 64 62 66 68 72 63 60 60 61 61 60 65 64 65 65 66 66 65 69 74 75 73
72 67 69 67 68 65 67 66 64 97 93 86 83 72 67 66 64 76 91 82 87 62 64 80 69 67 63 61 65 67 66 66 66 66 69 72 70 73
73 71 66 57 70 72 77 72 94 70 65 65 69 69 69 73 96 93 88 87 83 72 76 88 67 69 60 54 66 67 68 68 68 68 70 76 75 71
73 74 76 74 78 65 66 97 78 73 62 56 62 69 87 69 64 68 89 92 84 68 63 93 72 74 64 61 69 70 69 68 66 70 72 71 70 67
68 74 78 71 65 64 78 81 66 64 56 63 73 67 65 67 69 79 92 93 86 73 67 79 79 83 78 75 66 72 67 65 64 66 66 68 71 69
68 77 68 62 64 77 62 62 75 65 81 86 60 62 66 68 71 70 85 96 93 91 71 91 89 88 93 74 81 74 71 73 73 74 74 73 72 72
63 73 71 68 66 62 62 64 69 68 68 66 68 69 70 72 71 75 82 96 95 94 77 88 95 90 93 93 81 80 80 81 81 80 82 91 94 94
71 69 66 66 64 63 65 70 68 67 66 72 78 81 82 85 85 86 86 88 88 96 93 95 96 96 95 91 88 81 81 83 91 94 93 92 94 97
63 65 68 66 64 66 70 70 69 71 74 87 88 87 87 88 89 88 86 86 86 86 88 88 96 95 96 96 94 90 94 89 88 94 95 96 95 94
68 74 66 64 67 69 66 64 66 69 76 87 90 86 86 87 88 87 94 90 94 86 81 84 90 98 96 92 97 94 93 97 92 94 98 98 98 97
64 65 64 69 74 71 69 69 69 70 81 83 91 90 87 87 88 86 93 94 94 92 89 84 84 88 90 95 96 90 92 96 97 98 98 97 96 99
68 72 79 80 81 77 78 78 77 82 83 89 89 90 92 92 93 90 90 94 95 91 93 90 92 90 82 87 84 96 92 94 97 97 97 98 94 97
77 84 86 85 85 85 86 90 91 84 88 92 92 92 94 93 91 92 92 92 92 91 92 91 95 95 94 93 88 73 98 97 97 95 97 97 99 98
82 87 88 85 86 89 90 91 91 88 89 90 93 94 94 95 94 93 93 95 94 94 91 90 93 96 97 97 97 90 88 98 98 97 97 97 93 86
84 85 83 86 88 90 90 90 91 93 93 94 93 94 93 95 93 92 94 89 90 94 94 93 92 84 95 94 93 88 89 96 96 99 98 96 97 94
83 86 85 86 90 91 91 91 92 90 92 92 92 94 93 94 94 94 92 95 94 96 96 93 91 94 99 100 96 95 94 92 84 84 94 99 99 98
87 86 87 88 90 91 92 92 91 91 92 94 94 93 94 94 91 93 94 94 96 96 96 95 93 98 98 100 93 94 95 95 96 95 93 98 100 99

GFSNE_sfc_rhum_021.txt.gz
RH
40 42 41 38 40 41 45 47 50 54 48 36 39 35 40 42 45 41 41 54 59 59 58 58 57 57 63 62 63 59 64 63 64 65 63 62 66 69
38 41 42 41 42 44 47 49 51 55 62 43 45 44 44 41 46 46 43 57 60 63 62 60 59 62 58 60 63 59 57 60 62 65 64 63 65 65
43 44 46 45 45 45 48 51 53 53 61 55 48 48 48 48 43 44 51 53 53 63 61 60 59 57 56 56 57 58 58 61 62 65 68 70 72 76
47 48 48 43 51 48 50 52 55 54 61 67 59 56 49 46 49 61 54 44 42 49 56 58 59 60 60 61 61 63 64 64 68 66 65 67 66 67
49 51 49 49 50 50 53 56 57 55 62 69 63 52 55 63 62 49 43 40 36 51 58 60 62 63 63 64 63 62 63 62 62 62 63 68 69 69
52 51 50 52 53 58 59 60 60 60 57 60 69 84 66 55 52 50 50 48 49 46 57 59 62 61 62 63 63 62 62 63 63 63 64 69 72 70
53 50 50 57 64 61 54 58 57 63 68 93 79 70 65 53 53 52 56 60 64 55 54 51 49 50 53 62 61 64 65 66 66 66 69 70 68 70
53 50 51 61 61 66 65 64 63 75 97 86 80 62 54 52 54 63 84 77 81 52 54 60 54 54 51 50 61 64 65 66 66 67 72 71 69 70
52 52 52 50 61 61 67 70 74 81 68 62 58 57 59 60 92 91 80 74 73 62 65 73 55 57 50 45 63 66 67 68 68 68 68 71 70 69
53 54 56 59 62 64 58 92 75 64 52 49 55 60 77 71 60 62 73 83 74 59 55 83 58 61 54 53 66 68 69 70 70 70 72 74 72 71
52 54 58 57 63 62 74 84 59 52 52 61 70 70 65 66 67 71 86 88 82 65 59 69 67 74 69 67 59 66 66 72 78 76 72 70 69 69
53 51 62 61 63 71 63 58 66 55 71 80 51 52 57 58 69 62 83 95 90 88 59 85 83 81 87 60 69 65 61 68 72 74 78 84 82 78
55 56 54 64 72 64 62 54 61 64 65 55 55 57 59 60 60 64 75 95 95 92 70 85 92 87 88 88 75 76 75 73 80 82 83 87 93 96
62 55 56 66 64 64 62 70 69 68 55 60 66 73 76 80 81 82 84 87 85 94 90 96 96 95 94 90 84 77 78 80 88 94 92 88 85 91
55 61 67 67 64 62 68 70 70 60 63 74 81 85 84 86 89 88 87 86 88 87 88 87 95 95 95 95 93 86 86 86 89 94 96 94 93 91
64 68 63 62 66 66 62 58 57 59 68 80 82 80 81 85 87 85 91 89 92 86 82 84 92 98 95 90 90 91 87 96 91 96 98 97 96 97
61 58 54 57 62 60 60 61 61 61 73 76 85 84 82 84 85 84 90 92 93 91 89 83 85 88 88 94 93 85 83 90 96 98 98 97 95 98
62 60 66 67 70 68 71 70 69 76 76 84 85 86 90 90 91 89 89 93 94 90 91 89 88 89 82 81 67 86 90 90 92 98 98 97 89 96
65 72 75 75 77 79 81 84 87 81 89 91 91 90 92 92 90 91 90 90 90 88 90 89 93 95 92 90 74 69 96 92 95 92 97 98 98 98
73 77 80 78 80 84 86 89 88 85 87 88 92 93 93 94 93 92 91 93 91 90 90 89 92 95 98 96 94 83 79 98 97 95 97 97 92 88
75 77 75 81 84 88 88 89 90 91 92 94 92 93 93 95 92 90 91 88 90 90 92 91 92 83 93 91 88 81 82 82 92 99 98 97 97 94
75 79 80 83 87 90 91 90 91 90 92 91 91 93 93 94 94 92 88 93 89 91 93 90 88 90 91 89 92 89 86 82 79 79 82 99 99 98
81 81 84 87 89 90 90 90 91 90 91 93 93 93 93 94 90 89 90 90 92 91 89 91 88 85 87 88 91 86 87 84 85 86 92 97 100 100

GFSNE_sfc_rhum_027.txt.gz
RH
35 39 36 33 34 37 38 40 47 51 45 34 32 29 30 31 35 34 36 46 50 52 54 55 56 56 57 58 59 61 61 61 61 63 65 67 62 61
31 33 36 35 36 37 40 40 41 46 51 38 36 33 33 32 38 37 38 47 49 52 54 54 53 53 56 57 60 62 63 65 67 66 67 68 69 67
33 36 37 37 38 37 39 40 43 43 49 44 42 40 41 43 40 40 45 44 43 49 50 50 52 55 57 59 59 61 64 66 65 68 67 69 72 67
34 37 38 32 44 39 39 42 43 42 50 54 48 50 49 45 44 51 46 40 39 42 48 51 54 55 57 59 59 60 62 62 62 68 73 70 69 72
36 38 39 40 45 42 42 44 49 44 50 53 55 50 51 52 64 59 46 43 33 44 49 52 55 58 59 58 58 59 59 59 60 61 62 63 65 66
36 39 39 41 42 49 51 55 48 53 53 58 63 70 69 68 58 52 48 46 49 40 50 57 55 56 57 56 58 59 60 60 61 61 62 62 66 70
37 36 38 44 49 51 50 56 57 60 68 81 80 77 80 59 56 49 53 58 60 62 58 54 53 53 55 58 56 57 57 59 60 62 65 68 68 70
40 37 36 44 42 48 54 54 56 69 84 86 91 82 64 58 50 61 75 79 89 57 60 62 57 59 57 54 56 57 59 61 62 64 66 68 70 70
40 41 39 34 46 46 50 54 62 64 66 69 65 60 57 56 75 82 84 82 73 64 66 81 67 63 56 47 59 60 62 65 67 67 67 68 72 74
38 40 43 43 46 49 53 72 72 72 62 46 50 52 58 61 77 93 78 76 72 65 63 88 67 67 60 58 64 65 66 65 63 63 64 65 67 72
37 39 41 45 48 53 59 80 72 55 47 50 54 60 64 61 56 60 83 89 85 72 66 75 74 78 73 72 65 60 60 60 66 67 69 68 67 70
40 41 47 45 51 55 58 62 66 56 57 67 63 58 52 51 56 57 76 97 94 90 70 86 88 88 91 70 77 69 68 68 68 69 69 69 71 81
53 46 44 52 56 60 60 58 60 57 67 68 58 54 55 59 62 66 71 90 96 93 73 82 94 90 93 91 78 77 76 75 75 72 74 75 74 78
52 48 52 58 60 60 59 59 62 64 60 57 63 69 73 78 79 79 78 83 86 94 88 90 96 96 95 92 87 76 78 79 82 85 84 80 82 87
50 55 59 60 58 55 54 59 59 56 58 68 77 82 81 83 85 87 85 85 85 84 84 85 94 95 96 95 92 89 84 80 83 89 88 95 94 91
60 64 58 55 50 49 49 50 52 56 64 77 83 80 80 85 86 85 91 89 93 87 80 82 87 94 96 94 92 92 84 89 85 86 94 95 86 83
60 59 53 45 52 50 53 56 59 62 76 80 88 90 85 86 87 84 88 92 95 90 88 82 81 84 87 93 96 88 86 87 84 85 97 94 86 85
62 57 53 59 60 59 64 66 70 76 80 90 90 90 92 91 90 89 88 93 94 90 91 86 87 92 85 79 72 88 88 88 86 86 92 98 91 83
55 62 67 68 69 70 75 81 88 83 87 93 93 92 91 93 88 90 90 91 90 87 87 86 94 96 95 91 73 66 92 92 89 92 86 91 96 88
64 69 72 69 70 77 83 89 90 87 88 90 92 93 93 95 93 92 91 94 93 91 91 86 88 94 97 96 96 84 76 90 97 95 92 88 88 80
66 68 67 71 76 82 88 91 91 91 92 95 92 92 93 95 93 90 91 86 86 91 93 90 87 77 87 93 95 81 75 72 81 97 97 98 97 96
65 70 71 74 80 89 93 92 92 90 92 92 92 93 94 94 95 94 92 94 91 90 95 89 83 86 95 95 94 93 88 83 78 78 80 99 99 98
72 72 76 80 85 91 93 93 92 91 91 94 94 94 94 95 93 93 93 90 92 96 86 91 88 85 86 89 90 95 93 90 87 88 86 88 98 98

GFSNE_sfc_rhum_030.txt.gz
RH
45 47 51 50 50 52 55 57 66 63 56 55 51 41 46 43 48 42 44 48 50 52 54 54 54 55 55 56 56 56 59 61 63 65 67 67 65 66
43 43 48 50 52 54 57 59 60 67 61 52 48 51 49 40 46 44 44 50 52 54 54 54 53 54 54 55 56 60 63 63 62 67 68 69 70 71
43 46 49 49 55 56 56 58 62 63 62 52 49 51 60 58 47 52 50 51 52 56 55 53 51 52 55 56 56 58 61 63 66 67 69 69 70 68
44 48 50 39 56 57 58 59 62 62 65 65 59 58 62 59 55 56 51 55 54 48 53 50 53 54 56 58 58 60 59 58 61 64 67 64 66 66
47 50 52 54 59 62 59 64 69 56 68 68 68 63 61 62 69 67 77 56 42 47 50 53 55 58 61 59 59 58 58 60 60 59 60 62 64 67
49 52 52 54 57 62 62 70 62 73 71 73 74 80 79 74 76 73 62 57 55 48 53 59 65 61 60 59 59 60 61 61 62 61 60 61 62 63
50 48 49 54 48 50 50 69 73 75 79 89 84 77 80 92 70 66 64 63 64 64 67 69 60 60 60 62 60 62 62 62 61 61 62 64 64 65
55 53 49 51 51 48 50 53 54 70 83 83 90 92 74 70 63 67 75 77 85 67 77 68 63 64 62 65 64 62 62 63 63 63 64 64 64 69
58 54 51 39 53 58 58 53 58 59 62 66 75 74 66 62 79 84 84 88 92 74 72 78 67 70 64 55 64 65 65 65 67 65 64 66 68 69
54 52 55 57 58 56 61 85 82 84 78 67 60 58 63 64 68 90 88 81 74 70 71 88 70 72 64 65 67 67 68 67 64 62 62 63 65 67
50 53 55 59 55 51 66 86 77 75 56 58 58 61 65 64 60 61 81 88 85 75 70 79 78 82 78 74 67 70 63 62 65 68 69 68 67 68
62 60 57 51 54 55 60 64 75 69 68 72 72 72 64 65 60 65 78 94 94 91 73 90 91 90 90 72 79 71 72 70 70 69 69 70 70 74
73 68 62 56 57 58 59 63 67 59 62 72 69 64 63 66 68 70 74 94 96 93 74 82 95 91 93 90 80 78 77 75 74 73 73 75 76 77
67 66 69 61 60 60 59 58 58 60 64 64 69 73 78 83 83 82 80 83 84 91 86 92 96 96 95 92 88 77 79 79 84 86 84 79 79 78
62 61 62 62 62 60 56 55 57 66 66 74 85 88 86 86 87 88 86 86 89 88 87 86 92 94 96 95 92 89 86 82 84 90 89 86 85 87
68 85 65 63 57 54 56 60 65 66 70 79 84 85 85 88 88 87 94 90 94 88 81 83 88 92 96 94 92 92 85 93 85 85 85 86 85 84
63 70 69 62 68 64 64 65 67 68 79 83 90 91 89 88 89 86 90 94 96 91 88 82 82 84 87 92 95 88 86 87 85 86 89 93 88 85
65 70 71 76 75 71 70 73 75 81 83 89 90 91 94 93 92 91 90 93 95 90 91 86 86 90 86 81 77 94 94 92 88 86 84 95 93 84
68 87 83 82 80 79 81 86 89 85 88 94 94 92 92 94 91 92 91 92 92 89 88 88 94 96 95 92 72 66 96 94 91 92 88 92 96 89
83 86 87 81 80 83 86 90 91 89 90 90 93 94 94 95 94 92 92 94 94 92 93 87 90 96 97 96 96 84 77 90 97 95 92 88 86 78
81 82 80 82 84 85 88 90 91 92 93 94 92 93 93 95 93 90 92 87 88 90 93 90 86 84 91 92 95 82 76 73 80 97 97 97 94 95
79 82 81 82 85 89 92 92 92 90 92 92 93 93 93 94 94 94 93 94 91 91 92 94 89 92 95 96 94 91 86 80 76 78 80 88 99 98
84 82 84 85 87 90 92 92 92 91 92 94 93 93 93 94 92 92 92 90 91 95 96 94 89 87 88 94 92 94 93 86 85 86 85 81 95 98

GFSNE_sfc_rhum_033.txt.gz
RH
50 52 53 54 55 57 59 62 66 72 63 63 57 51 53 53 52 48 54 52 54 54 54 56 57 56 56 56 56 56 58 62 66 67 66 66 67 66
50 47 50 54 55 58 59 62 66 71 70 60 55 59 54 46 52 51 49 55 55 57 58 58 56 56 55 55 55 56 60 62 64 68 70 69 68 68
47 48 51 52 56 59 61 62 64 69 71 64 62 63 68 67 59 60 58 52 55 60 60 57 55 54 55 56 57 58 58 63 63 67 68 70 70 70
45 47 51 42 56 60 63 62 67 68 77 72 67 71 70 69 65 62 58 53 60 62 58 55 54 56 57 59 61 61 59 60 63 65 67 65 64 65
44 49 52 55 60 65 65 67 72 59 77 82 75 70 71 71 75 73 75 74 52 55 54 55 57 61 64 62 61 60 60 61 62 61 61 62 64 64
50 53 53 55 60 65 63 69 65 78 83 83 81 84 83 70 75 90 70 64 63 48 54 58 63 64 63 62 62 62 64 64 65 63 64 65 67 68
51 48 51 54 50 52 53 70 76 82 89 94 93 87 79 80 78 71 72 67 65 63 66 68 72 70 63 65 63 64 67 67 64 64 65 66 68 71
57 58 55 55 53 48 49 50 53 78 96 98 89 83 78 77 70 71 76 80 84 67 88 76 67 68 65 67 66 65 65 65 66 66 67 68 68 70
62 60 55 43 57 62 60 54 59 56 59 67 81 82 85 72 78 86 88 93 93 79 75 81 69 73 66 58 65 66 67 68 67 67 64 66 67 67
57 58 60 62 64 60 67 82 80 81 79 74 76 71 70 66 73 87 82 78 74 70 70 88 70 73 66 66 68 69 69 68 67 65 63 64 65 65
60 63 65 67 60 55 66 86 81 79 65 61 60 63 65 66 62 67 85 89 87 76 70 80 78 83 80 76 68 70 65 64 64 68 68 68 66 67
72 68 65 56 57 57 64 72 77 71 73 77 75 76 66 69 65 68 83 95 93 91 76 94 89 89 91 87 79 80 69 71 70 70 70 70 69 67
76 74 68 61 60 61 60 68 68 58 63 72 66 64 65 69 70 73 80 91 96 94 76 82 95 91 93 92 82 80 78 75 74 74 73 74 74 76
71 72 72 66 62 62 61 58 58 60 62 64 71 77 82 86 86 85 84 88 89 93 86 91 96 95 95 92 88 77 79 80 83 87 87 82 80 78
68 65 65 66 64 62 61 60 60 69 70 79 86 88 87 88 90 91 88 88 90 88 87 87 94 94 96 95 92 88 86 82 84 88 92 88 85 80
70 82 68 61 60 62 63 64 66 68 76 82 87 87 86 90 91 89 94 91 94 88 80 84 88 93 95 94 93 92 85 93 85 86 86 85 83 82
66 74 68 66 73 70 68 68 68 70 82 84 92 91 87 89 89 87 91 92 96 91 89 83 83 86 89 93 95 88 87 88 86 87 88 93 87 85
64 68 74 79 80 76 75 75 77 83 86 90 91 91 93 92 92 90 90 94 94 90 91 88 88 91 86 82 81 93 91 91 87 88 91 97 91 83
72 84 87 86 84 83 85 89 92 88 91 94 94 93 93 94 89 91 91 93 92 89 89 88 94 96 95 91 72 67 93 94 90 90 89 91 95 88
89 90 89 86 85 88 90 92 92 90 91 92 94 94 94 95 93 93 93 94 93 91 92 87 89 95 97 96 96 85 77 94 97 96 94 88 88 80
85 86 84 87 89 90 91 92 93 93 92 94 92 93 93 95 93 92 92 88 88 92 93 89 85 79 91 92 95 82 76 72 79 93 96 97 93 88
82 85 85 87 91 93 93 93 93 92 93 93 93 94 93 94 94 94 93 95 93 92 92 89 87 88 92 95 93 91 85 79 74 76 77 88 99 98
88 86 89 91 93 94 94 94 94 93 92 94 94 92 93 94 91 92 93 92 93 94 92 91 87 86 88 91 89 90 88 84 84 92 89 81 86 92

GFSNE_sfc_rhum_036.txt.gz
RH
52 55 54 57 58 60 62 64 64 68 70 62 58 56 56 58 58 54 61 58 56 56 57 58 58 59 58 57 56 56 57 61 60 62 63 63 66 65
55 53 54 57 58 61 63 64 71 70 73 66 62 62 59 52 59 54 59 58 60 61 61 60 59 59 58 57 58 58 58 61 64 65 65 66 67 67
52 50 52 54 57 59 64 64 67 72 75 67 68 66 74 72 64 68 66 61 62 64 62 62 61 58 58 57 58 58 58 59 63 70 67 66 67 68
49 51 51 42 55 58 62 65 68 70 76 74 74 79 79 75 76 75 64 57 64 65 67 61 60 58 59 60 61 61 60 63 61 60 60 61 63 60
46 49 49 52 56 61 66 68 71 59 76 82 77 82 84 82 81 79 79 76 69 64 60 60 60 61 64 64 63 62 61 62 62 62 63 62 60 68
60 63 59 56 57 61 62 66 62 73 79 84 83 92 96 84 82 90 78 67 67 54 58 61 64 64 65 64 65 64 65 65 66 66 65 63 66 67
64 51 52 55 57 56 56 70 74 78 83 94 91 98 92 83 78 74 77 72 69 68 68 69 73 77 74 69 66 66 67 69 67 66 66 66 68 68
58 58 57 56 57 52 50 51 52 82 95 98 98 92 86 80 78 80 82 84 88 72 89 76 69 69 68 68 69 68 67 66 66 65 66 68 70 70
60 60 55 45 63 65 63 58 60 60 59 66 76 81 86 82 84 89 87 91 92 75 76 80 69 71 66 60 67 67 67 68 68 65 64 63 66 67
64 66 69 71 71 66 70 84 80 79 74 71 84 83 81 75 82 96 86 82 79 72 70 88 70 73 66 67 69 70 70 70 68 67 64 63 63 65
66 68 73 75 64 58 70 87 83 78 66 62 60 61 64 66 63 68 88 92 88 76 70 80 82 82 76 74 68 71 67 66 64 64 66 68 67 66
71 71 66 61 59 58 68 78 82 75 72 77 79 70 64 69 66 71 86 96 94 93 84 97 86 89 90 90 79 81 69 70 70 71 71 70 69 67
73 72 69 64 63 63 60 71 67 61 68 68 64 66 67 72 73 77 83 94 96 94 75 84 95 91 93 91 85 80 80 75 73 72 73 73 74 74
72 73 74 69 64 63 62 62 61 63 64 67 75 81 85 88 87 86 86 90 90 94 87 92 96 96 95 92 89 78 80 81 84 85 86 82 79 77
70 69 69 67 64 64 64 63 64 71 72 82 89 90 90 90 90 91 90 89 91 90 90 90 95 94 96 94 93 88 87 82 84 88 88 90 92 90
72 90 65 61 62 64 66 67 67 70 77 85 89 87 88 90 90 89 94 92 94 88 82 84 90 94 95 92 93 92 85 93 86 86 87 87 85 84
73 68 68 70 77 73 71 70 70 71 84 88 93 91 88 88 89 88 92 93 96 92 89 84 84 88 90 93 95 88 88 88 86 88 89 92 88 86
66 74 80 84 84 80 80 80 80 86 88 92 91 92 94 93 92 91 91 94 95 91 91 88 88 90 86 81 82 93 90 90 87 88 94 97 92 84
77 92 92 90 89 87 90 92 94 90 92 94 94 93 94 94 91 93 92 92 92 90 89 88 93 96 95 91 71 65 92 95 92 88 86 88 92 86
92 94 93 91 90 92 93 95 94 93 92 92 94 94 94 95 94 93 92 94 93 91 92 88 90 95 97 95 95 83 75 92 97 95 93 88 85 77
88 90 88 90 92 94 94 94 95 94 93 95 94 94 94 96 93 92 93 89 90 92 93 90 86 79 90 94 95 80 74 71 79 96 96 97 93 88
86 90 90 92 94 96 95 95 94 94 94 94 93 94 94 94 94 93 92 94 92 92 92 90 87 87 94 96 93 90 85 78 75 76 81 94 98 98
93 92 93 95 95 96 95 95 94 94 94 94 94 93 93 94 90 91 92 92 95 95 90 91 85 84 86 89 89 93 94 91 89 90 83 76 78 80

GFSNE_sfc_rhum_039.txt.gz
RH
55 54 53 53 54 57 62 62 60 62 66 58 54 54 58 60 60 61 64 61 60 60 61 62 61 61 60 59 59 59 57 57 59 61 60 63 67 65
58 49 51 55 55 59 67 67 68 66 69 66 61 62 60 52 62 62 64 61 62 64 64 63 61 61 60 60 59 59 61 57 57 63 67 65 66 64
67 62 50 52 56 59 67 68 69 71 74 68 68 66 72 72 68 72 72 72 69 65 64 64 64 63 61 59 59 59 59 61 62 64 66 64 70 65
74 69 50 44 57 58 59 60 62 69 74 75 76 77 77 75 77 82 66 59 66 66 69 67 64 61 61 61 61 60 61 63 63 66 66 64 64 61
54 49 50 51 56 60 62 64 70 58 72 78 77 83 84 84 88 86 84 80 70 66 63 63 63 63 65 64 62 62 61 62 62 62 61 61 61 62
73 75 78 81 76 67 61 63 60 68 77 82 80 88 95 88 94 89 78 74 71 58 62 64 66 65 65 65 66 66 67 67 67 66 65 64 63 62
98 94 78 67 63 60 57 66 74 78 83 93 91 98 96 94 86 76 83 77 77 74 71 72 79 77 76 72 67 66 68 70 69 68 66 65 68 68
93 68 56 54 57 56 57 57 59 83 94 97 97 90 93 92 88 84 85 92 90 81 88 76 72 72 67 68 69 69 69 68 67 67 64 65 68 70
56 57 55 50 68 67 64 61 64 61 60 71 82 84 81 80 86 92 91 92 92 80 77 83 70 73 66 60 67 68 68 69 69 68 66 66 68 67
61 64 69 71 72 67 72 86 81 82 78 73 82 79 84 82 82 96 94 87 79 74 74 90 70 73 66 67 70 70 70 70 68 68 66 64 64 65
65 70 73 75 67 59 72 87 85 81 67 62 61 63 65 65 63 67 86 92 88 78 70 81 84 83 76 73 67 72 68 66 65 64 65 66 66 64
69 68 66 62 59 60 74 79 84 76 73 81 75 65 63 68 67 72 88 96 95 93 86 98 88 88 92 91 83 83 72 71 70 71 72 71 70 67
71 71 69 65 65 65 62 74 68 63 70 71 67 68 70 75 75 78 83 95 96 94 75 82 95 93 94 92 89 85 81 74 73 72 73 73 73 74
72 74 76 72 66 65 64 63 63 65 67 70 78 84 87 88 88 88 86 90 90 94 87 92 96 96 95 93 89 78 80 81 84 84 85 81 79 78
70 72 74 66 64 66 66 64 66 75 74 84 90 91 90 91 91 92 91 90 92 91 91 90 96 94 96 94 92 88 87 83 85 88 87 89 90 89
82 87 63 62 64 65 67 68 70 70 78 86 90 88 89 92 93 91 95 92 94 88 83 85 90 94 95 93 93 92 85 93 86 86 87 87 86 86
68 68 71 73 80 77 75 74 74 74 87 89 93 90 90 91 91 90 93 93 96 92 90 85 85 89 90 94 95 88 87 88 86 88 90 91 86 86
69 77 83 86 88 84 83 83 83 88 90 92 92 94 95 95 94 91 92 95 95 91 92 89 89 91 85 80 82 93 90 90 87 87 89 96 93 85
80 94 94 93 92 91 93 95 96 92 93 96 96 95 95 94 91 93 92 94 92 90 89 88 94 96 95 91 70 61 92 94 94 94 88 88 90 85
92 95 95 93 92 94 95 96 95 94 95 95 95 94 95 95 94 93 93 94 93 90 91 86 90 96 97 95 95 83 74 95 97 95 93 87 85 78
92 94 91 93 95 95 94 95 96 96 94 94 94 95 94 95 93 92 93 88 88 91 93 89 85 78 89 93 94 79 73 70 79 97 96 97 92 87
90 93 93 95 95 96 95 95 96 95 95 95 94 94 93 94 94 94 92 94 92 91 92 90 86 86 94 96 93 90 84 77 74 77 78 90 98 97
94 94 95 96 95 96 95 96 95 95 94 95 94 94 93 94 91 92 92 91 92 95 91 91 87 86 84 92 95 94 92 88 82 86 83 75 78 79

GFSNE_sfc_rhum_045.txt.gz
RH
67 63 59 68 71 68 64 52 50 54 46 47 46 40 40 41 44 38 41 54 59 58 59 60 60 61 62 62 62 61 61 60 59 58 58 57 58 64
61 57 59 60 66 70 74 71 66 48 50 50 52 47 46 42 47 46 46 59 58 61 61 60 61 62 62 62 61 61 60 59 59 64 64 59 63 66
61 62 68 69 74 77 83 82 86 86 87 81 78 78 81 67 54 48 49 49 47 62 63 62 62 63 63 62 61 61 60 59 59 59 60 65 67 64
76 77 82 80 92 92 88 86 89 94 91 90 81 77 69 60 53 52 50 46 48 56 64 64 62 63 64 64 63 63 61 62 65 66 68 68 69 67
81 83 78 79 89 94 96 99 99 98 95 89 79 73 65 57 57 55 56 55 52 62 63 63 65 66 67 66 64 62 62 62 62 62 61 60 61 62
85 88 89 92 98 100 100 100 97 90 84 84 80 72 66 60 64 65 61 53 52 47 56 62 67 65 64 64 63 64 66 67 68 67 66 63 64 65
97 99 100 100 100 100 92 86 89 85 80 81 76 70 67 63 62 58 62 56 58 58 58 54 54 53 54 62 64 66 67 70 70 68 66 66 67 67
99 99 97 96 91 91 88 82 75 78 84 79 78 70 64 64 62 63 70 71 78 51 59 58 53 54 51 51 61 67 68 68 67 68 66 66 66 68
95 91 86 80 89 87 71 57 63 61 60 64 70 65 65 61 80 84 79 77 79 61 60 65 52 54 51 47 63 66 67 67 68 68 67 64 64 66
73 76 76 70 70 61 59 73 65 64 63 63 63 60 60 63 70 86 82 69 60 56 55 80 54 55 49 49 62 66 68 69 67 66 66 64 63 66
71 67 66 62 60 57 59 78 70 68 57 61 60 65 65 64 60 61 77 80 79 62 55 64 63 63 60 59 51 62 64 64 63 64 66 67 68 66
59 56 60 56 60 60 69 76 68 59 59 66 58 54 53 54 68 60 73 93 89 84 60 76 71 72 81 55 60 55 52 62 67 69 70 69 70 66
58 57 56 66 65 67 61 60 58 53 62 56 52 52 56 59 60 62 68 88 93 91 66 81 87 82 87 82 66 64 63 62 59 60 68 71 72 73
60 60 65 69 65 64 59 61 61 62 54 55 63 68 72 76 77 78 77 82 79 93 84 91 95 91 93 90 82 68 71 72 77 77 79 76 77 77
65 66 66 64 61 61 63 61 62 58 61 72 77 82 81 83 89 88 88 89 93 91 91 92 96 94 95 94 90 82 84 77 81 86 84 81 82 78
68 62 58 59 64 61 59 58 59 60 68 73 78 76 78 85 86 84 91 88 93 88 83 90 93 94 94 89 90 89 82 93 82 83 84 83 79 78
67 53 54 58 61 61 62 64 65 66 75 76 83 84 81 84 85 84 89 92 94 92 89 83 81 85 88 94 94 86 84 84 84 86 88 89 82 80
56 60 65 68 70 70 72 72 72 78 77 83 85 86 90 91 91 89 89 92 95 90 91 88 88 90 84 80 85 93 88 87 85 86 88 96 91 82
64 72 75 78 80 80 81 84 88 82 90 92 91 92 92 92 93 91 90 91 90 89 89 88 93 95 95 90 69 61 91 91 87 84 85 86 91 85
75 80 82 81 82 85 86 89 89 87 88 90 92 93 94 93 93 92 92 93 92 90 89 87 90 92 97 94 95 83 74 92 93 92 89 84 82 76
76 80 79 82 85 88 88 90 92 92 93 93 92 93 93 94 92 91 91 87 85 89 93 88 86 75 87 91 94 77 72 72 81 98 94 94 89 82
76 79 80 83 86 90 91 92 93 92 93 92 92 93 92 92 93 91 88 91 87 87 90 87 85 92 93 92 91 86 79 73 72 74 78 93 97 95
79 79 82 86 88 90 91 92 92 92 92 94 94 92 93 94 88 88 89 86 89 90 88 90 87 82 84 88 85 88 86 81 77 81 78 70 78 80

GFSNE_sfc_rhum_048.txt.gz
RH
78 68 56 54 62 65 66 69 70 77 68 61 54 45 44 40 42 41 39 46 55 58 58 59 60 61 61 62 63 63 62 62 61 61 60 59 59 59
75 65 57 55 63 70 67 69 64 65 74 69 75 71 65 62 77 79 68 64 62 56 59 60 61 61 61 62 63 62 62 61 61 60 60 58 62 65
70 67 74 73 80 84 81 80 84 87 86 93 89 91 95 96 91 79 66 52 44 53 56 60 60 62 63 62 62 62 61 61 60 59 60 59 66 67
73 75 79 78 91 89 87 93 93 96 94 95 99 97 98 94 77 70 55 43 43 48 57 61 64 62 63 63 64 64 62 61 60 61 67 68 69 68
76 80 86 87 94 96 94 97 99 100 99 94 94 92 75 66 66 56 49 46 42 53 55 53 56 59 63 65 65 64 63 63 62 62 62 62 61 62
82 83 87 89 96 100 100 100 100 99 96 89 80 76 73 65 61 58 50 45 44 36 45 51 57 60 63 65 65 66 67 67 67 67 66 65 63 64
97 98 100 99 97 99 98 98 98 97 83 84 77 69 62 54 50 48 51 48 49 47 45 45 44 44 46 51 54 58 60 62 65 68 67 65 65 66
99 99 100 100 98 94 92 84 74 74 84 77 76 64 53 48 47 50 60 60 66 47 49 51 46 45 44 43 51 57 61 65 66 66 66 65 65 63
98 96 88 76 82 77 77 66 64 67 67 63 59 50 51 51 71 78 68 67 69 54 52 57 46 48 44 38 52 56 60 64 66 67 68 67 65 64
80 80 70 64 60 60 56 65 61 55 52 51 55 52 51 50 53 75 77 64 54 49 48 72 50 50 45 44 55 58 60 62 65 66 66 65 63 64
61 61 59 57 54 58 56 69 59 57 54 56 58 60 63 64 61 56 70 74 72 58 52 60 57 61 59 59 51 59 60 62 64 65 65 66 67 67
50 46 54 53 60 60 61 67 62 52 49 53 48 46 46 44 57 58 66 87 84 81 55 72 70 74 81 56 59 53 52 59 62 64 66 68 69 65
47 48 49 65 66 67 63 55 55 50 50 51 43 41 45 49 52 53 59 82 90 90 65 82 86 81 86 82 67 66 66 64 58 58 63 66 68 70
52 50 56 65 65 63 57 55 60 61 47 43 52 58 64 70 73 74 74 78 77 88 83 90 95 90 92 89 83 70 74 74 78 78 80 75 74 73
54 60 64 60 56 52 54 60 62 48 50 59 67 75 77 80 86 86 88 90 87 89 90 92 95 92 95 95 91 82 83 78 83 88 85 81 80 78
63 56 53 54 57 57 51 49 50 50 57 65 68 69 72 80 82 81 87 86 89 88 93 92 93 95 95 90 90 86 82 92 82 84 85 83 79 78
65 42 38 40 45 46 51 53 55 56 65 67 76 77 76 77 81 82 86 88 95 90 87 84 88 87 91 95 95 87 84 84 84 86 88 89 84 82
45 42 45 50 55 57 59 59 61 68 69 77 80 81 85 86 87 86 85 88 90 86 87 84 85 86 84 79 77 89 86 85 85 86 87 94 89 82
46 52 58 63 68 68 71 76 80 75 86 87 86 87 87 88 88 88 87 87 85 83 84 87 92 95 95 91 70 64 84 83 85 86 85 87 90 85
59 64 68 69 70 74 78 82 83 82 84 85 87 87 89 90 90 90 88 92 90 88 89 85 86 91 96 94 94 82 74 87 89 89 88 82 80 74
59 63 64 70 74 78 81 82 85 88 88 89 89 90 89 90 90 89 88 87 86 87 91 84 85 74 87 89 94 78 71 75 80 96 95 93 89 82
57 62 64 70 76 80 84 85 87 87 88 88 88 90 89 89 89 87 86 88 87 89 86 85 82 89 95 96 91 85 77 70 70 72 74 84 97 96
62 62 66 72 78 81 83 84 86 88 88 90 91 90 89 90 84 86 84 83 88 90 87 85 88 89 89 89 87 88 83 77 75 78 78 72 79 84

GFSNE_sfc_rhum_051.txt.gz
RH
86 84 78 78 78 80 84 87 82 86 69 62 65 50 51 50 51 49 63 64 61 64 63 59 58 59 60 62 62 62 63 63 62 62 61 60 59 58
94 91 84 72 78 84 84 83 88 89 94 90 90 82 68 63 76 83 81 82 78 70 63 57 58 61 63 63 62 63 63 62 62 62 61 60 58 57
92 83 81 80 88 90 91 90 92 92 92 93 91 93 94 94 93 94 89 78 64 59 56 55 56 58 61 63 63 62 62 62 61 61 60 59 58 60
83 84 85 81 90 88 91 94 95 99 97 99 99 100 100 100 99 99 79 56 51 48 51 56 60 63 62 60 61 62 62 62 62 61 60 59 58 58
83 82 84 84 92 95 96 98 99 98 99 98 99 99 99 96 85 68 62 55 44 48 52 51 50 52 57 61 64 64 64 64 64 63 62 62 62 61
84 85 86 90 96 100 100 100 99 99 99 99 98 96 89 78 74 69 63 57 54 39 43 48 52 52 56 57 57 58 60 63 64 65 64 63 63 62
97 98 100 95 92 95 96 99 99 99 99 98 86 80 75 70 66 60 60 60 60 56 56 54 58 58 55 54 52 53 53 55 58 61 63 64 62 61
99 98 98 98 96 96 96 96 90 85 88 85 86 74 63 60 57 64 81 74 76 61 63 61 58 57 55 54 52 53 56 57 60 62 64 64 64 62
99 98 93 81 79 75 76 70 66 65 66 70 70 63 60 62 88 89 80 79 78 64 66 68 59 60 56 44 52 55 58 59 61 62 64 64 62 61
86 77 69 62 61 59 57 70 68 65 62 53 62 62 62 61 63 81 85 79 69 63 63 78 63 64 58 57 57 59 60 62 63 64 65 66 65 64
60 57 54 50 53 56 63 77 68 63 52 58 56 57 60 61 62 70 82 84 82 73 66 74 75 76 72 69 64 60 57 58 60 63 64 65 66 65
48 45 54 58 60 61 68 69 72 61 60 61 58 55 53 55 51 62 80 93 87 90 79 90 90 87 96 83 83 73 66 65 63 63 64 65 65 61
52 52 53 65 66 65 65 67 62 59 57 59 57 52 53 59 64 65 69 93 88 91 77 84 97 92 90 88 82 80 77 75 73 71 68 68 69 70
53 53 59 65 65 62 59 52 58 62 60 53 60 70 78 85 78 76 77 81 80 86 85 91 97 93 95 93 90 81 81 80 82 84 86 78 74 73
60 67 64 58 52 51 45 58 62 59 57 68 78 88 77 79 84 84 85 85 87 90 88 89 96 95 96 95 93 88 87 83 83 88 90 88 88 84
60 64 51 53 50 53 54 50 56 57 64 74 80 83 86 82 81 80 85 85 91 86 87 89 92 96 96 93 93 91 84 93 85 85 87 85 83 81
65 51 41 41 48 48 54 58 62 62 72 79 82 78 79 79 81 80 88 89 95 92 86 83 81 85 92 97 96 86 84 87 86 88 89 90 86 86
58 42 46 53 57 59 62 64 69 73 75 80 83 85 89 90 88 86 86 93 92 86 88 84 87 89 86 82 78 91 87 88 86 85 86 93 89 82
51 55 62 65 71 75 79 79 80 76 87 92 94 90 90 91 87 87 88 93 90 90 87 83 88 95 95 92 74 66 83 81 81 83 83 86 91 85
59 68 72 72 75 80 76 84 82 82 87 88 89 92 93 94 94 90 89 93 91 86 91 87 89 86 95 95 94 83 75 87 87 89 89 84 82 74
62 66 66 73 78 80 79 86 85 86 89 91 88 90 92 94 93 91 91 83 84 88 92 90 85 73 84 85 94 83 73 74 78 85 85 88 88 84
61 64 67 74 80 85 81 84 85 85 92 86 88 90 92 94 94 92 90 93 87 86 87 87 84 85 92 96 92 86 80 74 73 74 74 76 93 96
68 68 72 78 83 86 89 89 88 86 87 90 89 93 94 95 91 91 90 90 91 90 86 89 83 83 93 94 94 87 88 82 79 79 76 70 73 82

GFSNE_sfc_rhum_057.txt.gz
RH
98 97 96 95 94 94 94 91 86 94 94 95 95 92 93 94 94 90 91 83 83 85 84 82 80 77 74 75 70 64 63 62 62 62 61 60 60 59
99 99 99 97 98 98 98 96 97 92 96 93 95 95 94 93 93 94 93 90 88 86 80 78 77 76 78 73 65 61 61 62 62 61 60 59 58 58
96 96 96 94 97 97 98 98 99 99 99 99 97 98 99 98 97 97 93 93 89 78 74 74 79 78 65 59 60 61 62 61 60 60 59 59 58 57
94 94 94 88 97 97 98 99 99 100 100 100 100 100 100 100 97 95 84 73 80 78 82 83 64 57 57 60 58 55 57 60 61 61 61 60 58 57
92 92 92 91 95 96 97 99 99 97 99 98 99 99 98 98 98 95 92 89 74 68 62 56 54 52 51 53 55 56 59 60 59 60 60 58 60 60
91 92 92 93 96 100 100 100 98 98 97 97 99 99 98 98 93 91 88 78 76 55 52 53 53 54 54 54 55 57 58 58 58 58 58 58 59 60
97 98 99 92 88 90 93 98 96 98 97 98 97 97 97 91 92 85 89 82 81 79 74 74 73 74 73 64 62 58 58 58 58 58 59 59 58 56
99 99 98 97 94 87 86 88 94 98 96 97 96 88 80 80 78 82 95 90 92 83 85 81 78 78 79 79 65 61 58 57 59 60 61 61 61 60
99 99 93 80 86 80 68 66 66 65 68 84 88 84 78 78 90 92 86 92 91 84 86 93 84 81 81 64 62 61 61 61 63 64 64 64 62 61
94 85 81 74 65 67 71 78 77 75 72 63 80 82 81 80 79 88 91 92 89 85 88 99 90 85 81 82 68 65 63 63 60 61 64 65 65 62
69 69 73 78 60 61 84 90 84 80 56 57 56 53 52 53 64 88 96 97 95 93 85 95 94 96 91 88 83 65 61 64 64 66 68 67 68 65
67 66 59 69 64 66 85 89 86 80 76 75 73 71 66 65 52 75 94 96 98 97 90 98 98 98 97 97 94 81 84 75 68 68 71 72 71 70
67 71 78 64 65 62 62 78 78 73 74 85 79 72 72 80 80 81 82 94 98 97 86 91 99 95 97 94 97 97 93 87 83 79 76 74 74 74
79 88 85 65 58 55 58 55 55 62 80 74 73 88 89 95 94 93 87 90 90 95 94 96 98 96 97 93 92 88 90 84 93 90 94 82 78 74
73 70 63 56 54 58 55 52 54 72 74 90 96 97 98 98 96 94 88 91 92 89 90 93 97 96 97 95 93 90 89 86 88 91 97 95 93 90
70 86 62 51 46 50 53 55 65 71 81 96 97 97 98 95 87 93 95 96 97 93 93 94 96 96 96 95 95 93 88 94 87 88 90 90 89 89
71 69 62 55 65 64 70 72 76 74 90 97 97 95 80 90 89 95 94 95 97 94 91 87 88 90 94 95 96 90 89 90 88 89 91 92 88 87
70 73 72 83 85 76 82 83 86 88 85 87 90 92 95 94 94 94 96 97 96 92 92 89 91 93 91 90 87 90 87 89 89 90 91 97 90 83
70 84 90 92 95 96 97 98 91 82 94 96 92 96 96 96 90 94 95 96 94 92 92 92 94 96 95 92 76 65 88 86 86 86 86 90 93 86
89 93 92 91 94 96 97 97 88 88 92 92 96 94 95 96 95 94 94 95 94 92 93 93 95 95 96 92 93 81 73 87 88 91 90 86 84 76
87 89 87 92 94 95 95 96 96 94 87 96 96 95 92 96 94 94 95 86 87 93 94 91 87 74 86 91 95 82 74 70 76 86 86 90 90 85
85 88 88 93 95 97 96 97 97 96 94 88 92 94 92 89 90 93 92 94 92 91 91 88 86 91 94 95 90 86 80 74 72 73 75 81 91 95
88 90 93 94 96 96 97 97 97 96 96 95 95 94 93 94 90 91 92 91 92 92 90 91 88 88 93 94 89 89 86 83 80 82 78 75 78 76

GFSNE_sfc_rhum_060.txt.gz
RH
98 99 99 97 95 94 95 98 97 99 98 98 97 96 96 96 90 92 93 85 85 86 86 84 84 86 86 84 79 77 73 70 69 65 63 62 61 60
97 99 98 98 98 98 98 99 99 99 98 96 98 97 97 96 96 97 96 89 88 88 85 84 86 85 82 77 76 76 74 68 64 63 62 60 59 58
93 94 95 93 96 97 98 98 98 98 99 99 98 99 99 99 99 98 97 97 95 84 82 82 81 79 77 80 74 67 66 62 61 61 60 60 59 58
94 93 95 91 97 97 98 98 99 100 99 99 100 100 100 100 99 98 92 82 84 80 80 80 82 84 72 64 62 61 60 58 58 60 61 60 58 60
90 91 91 90 95 96 97 98 99 96 99 98 99 99 99 98 98 94 92 90 79 86 89 82 74 66 59 56 54 55 57 59 60 59 60 60 60 59
90 90 91 93 97 100 99 100 97 97 97 96 98 98 98 98 96 98 99 96 91 63 59 54 53 56 56 56 56 57 60 60 61 60 60 60 60 60
97 97 99 92 86 89 92 96 95 96 96 97 97 98 99 98 98 94 87 80 80 80 75 74 74 75 73 66 62 60 60 60 60 61 60 60 60 60
99 97 90 89 91 86 85 85 91 96 95 97 96 89 86 90 88 86 96 95 92 84 86 83 81 84 81 84 69 64 63 62 61 61 62 62 60 60
97 97 89 78 80 79 68 68 68 64 70 87 90 87 80 82 93 93 88 94 91 83 91 94 89 84 82 68 65 63 63 63 63 64 65 64 64 61
89 80 81 76 73 77 84 85 85 81 78 68 84 85 82 82 79 88 90 92 90 88 92 98 92 87 82 83 71 67 65 64 62 62 65 66 66 66
73 78 78 82 63 74 84 88 88 81 58 62 62 58 54 58 71 91 97 98 96 92 89 96 96 96 92 90 84 66 63 64 64 66 69 69 70 70
69 66 67 70 65 63 85 88 91 84 80 81 77 73 67 66 58 78 95 97 98 97 90 98 98 98 97 94 94 82 80 71 68 70 68 71 71 79
70 79 80 68 63 60 58 76 74 75 75 84 80 72 74 81 88 85 85 95 98 98 88 95 98 95 97 96 98 97 97 86 83 77 75 73 72 75
75 82 84 67 56 54 58 55 54 68 78 75 76 91 93 96 96 84 84 92 90 94 90 97 98 98 97 92 90 93 94 92 93 91 94 83 79 74
73 71 66 61 58 56 56 52 61 70 74 93 98 97 97 98 97 96 95 92 93 92 89 93 97 96 97 95 92 87 88 98 93 93 96 97 94 90
72 82 58 52 51 54 58 58 65 72 82 96 97 98 98 94 89 93 98 98 97 97 93 94 96 97 96 95 94 92 90 96 95 94 96 93 92 92
71 70 62 60 71 70 75 79 82 81 94 97 98 95 81 84 90 95 95 96 98 98 97 96 92 92 92 95 96 91 88 90 89 91 94 94 88 87
75 73 74 86 89 82 84 86 88 89 90 89 86 92 95 95 94 94 96 98 97 96 96 97 98 98 94 89 83 92 87 84 84 89 93 97 90 82
70 90 91 90 90 95 97 98 98 94 95 97 95 96 95 92 88 95 95 98 96 95 94 96 99 99 96 94 80 61 91 88 92 94 90 86 90 85
88 93 91 91 93 96 97 98 97 96 94 93 94 94 95 96 95 92 96 98 95 93 94 93 98 96 96 92 92 82 70 86 87 90 89 87 85 75
93 92 89 92 94 95 95 97 98 98 96 97 99 95 89 95 94 89 87 87 85 92 94 92 88 76 94 96 95 83 74 67 74 88 88 90 88 83
92 91 90 93 95 96 96 97 98 97 97 97 97 98 96 97 95 93 90 93 91 91 92 88 86 91 97 95 92 88 82 75 70 69 70 76 90 95
88 89 93 95 96 96 97 97 97 96 96 96 96 95 96 97 94 92 91 89 90 91 90 91 88 88 92 93 90 90 87 84 82 84 79 69 73 76

GFSNE_sfc_rhum_063.txt.gz
RH
97 96 98 98 99 99 98 98 99 100 98 94 97 98 98 98 96 96 98 92 91 87 85 86 89 87 85 82 80 78 82 79 80 80 78 72 68 64
96 93 96 96 96 97 98 98 98 99 99 97 98 97 98 97 96 99 98 94 92 89 88 89 89 86 83 79 77 77 77 80 76 73 70 68 64 61
91 92 93 93 96 97 97 97 98 99 100 99 98 98 99 99 98 98 98 98 97 91 88 82 81 81 80 78 75 79 77 70 70 66 63 62 60 58
92 92 93 88 96 96 96 97 98 98 100 99 100 100 100 100 98 98 94 88 91 85 85 80 81 80 78 80 79 71 66 63 62 59 58 59 59 59
89 89 90 90 94 96 96 97 98 95 99 98 99 98 99 98 98 96 93 93 84 85 82 82 82 81 78 70 63 59 58 57 58 60 58 59 61 60
94 94 91 92 96 99 99 99 97 97 96 97 98 98 98 97 99 99 99 98 99 85 77 63 60 58 58 58 58 58 58 60 62 62 61 60 61 61
94 92 94 91 82 87 92 97 97 98 98 98 98 98 98 98 99 96 96 84 79 81 74 74 73 74 74 66 64 61 60 60 60 60 61 61 59 58
96 92 88 79 77 71 69 70 79 90 92 98 98 93 89 92 90 92 97 94 92 85 86 82 80 82 80 82 70 65 63 61 63 63 62 62 61 61
94 92 80 72 78 81 76 74 74 68 73 90 92 90 86 87 94 94 89 95 91 82 90 93 89 85 82 72 67 64 63 64 63 64 64 64 62 62
90 81 83 86 82 83 84 88 89 77 79 71 84 85 84 83 81 89 91 93 89 87 92 98 93 89 83 84 71 68 67 66 66 64 64 66 67 68
69 73 83 85 66 68 82 89 86 80 62 66 65 62 62 60 72 91 98 98 97 90 92 98 96 97 94 92 83 70 65 63 64 65 66 69 69 70
73 69 69 72 63 62 83 85 82 83 82 83 78 73 66 68 62 87 95 98 98 96 90 98 98 98 98 94 94 85 82 70 68 68 68 68 69 69
72 79 76 68 62 58 57 75 73 72 76 82 76 74 77 83 92 85 86 95 98 98 87 96 99 93 94 94 97 98 98 86 85 78 74 74 72 74
70 76 81 67 61 58 56 55 53 68 72 74 80 93 96 97 96 95 87 88 88 93 90 97 99 99 98 92 89 97 97 96 95 89 92 84 79 77
71 70 64 56 53 57 56 52 62 72 75 94 98 97 98 98 97 96 95 91 94 94 92 95 97 96 97 95 93 89 86 96 90 93 95 96 95 96
72 84 60 53 56 59 63 67 69 74 85 95 98 98 98 96 86 94 97 93 94 97 92 95 98 98 97 96 95 92 88 96 97 97 98 96 91 93
75 74 64 65 73 74 77 82 84 84 97 98 99 95 86 88 90 93 95 96 98 100 95 96 92 93 94 95 96 89 89 88 84 85 85 88 86 90
75 78 79 86 88 78 81 84 90 89 96 90 90 91 95 94 94 94 96 98 97 96 98 98 98 98 96 92 85 93 90 91 89 86 85 96 89 86
72 88 91 91 90 92 97 98 98 96 97 98 98 96 96 95 85 93 88 99 96 96 95 98 100 100 97 95 88 61 94 91 92 92 92 93 94 86
89 92 91 90 92 95 96 97 97 96 98 98 98 98 96 97 95 93 93 92 95 94 94 95 99 97 96 93 93 82 67 87 89 90 90 87 84 75
96 96 93 94 94 95 95 97 98 98 99 100 100 99 98 98 96 95 95 86 83 89 94 91 87 77 96 96 96 84 75 67 74 88 90 94 91 85
92 94 91 94 95 96 96 97 98 97 97 97 97 97 97 98 97 95 94 95 93 93 92 89 87 91 96 95 92 88 83 76 70 69 70 75 91 94
87 88 92 94 95 96 97 97 96 96 96 96 97 96 96 98 95 95 93 92 93 93 92 92 89 90 93 93 90 90 87 85 82 85 82 71 72 75

GFSNE_sfc_rhum_069.txt.gz
RH
95 91 92 90 91 92 90 88 85 91 96 83 94 83 83 87 89 85 85 89 84 81 80 90 92 95 89 86 85 85 86 88 84 82 78 79 77 76
87 84 86 87 86 87 88 86 92 98 97 94 94 89 83 85 89 88 91 92 90 88 86 89 91 89 89 91 93 90 88 86 82 81 79 80 83 76
83 84 86 85 87 84 86 88 92 95 99 98 92 88 90 88 84 87 88 88 90 88 89 89 89 89 90 90 89 86 84 86 84 82 78 75 69 67
83 82 83 79 85 83 87 90 92 92 95 96 95 96 97 89 86 86 84 78 84 84 84 83 83 85 83 81 80 78 83 78 78 75 74 71 69 65
80 81 82 81 85 86 87 90 89 84 88 89 93 86 87 84 81 81 84 84 79 82 82 80 78 78 77 75 74 73 72 72 69 65 62 62 63 61
86 87 85 83 84 92 93 95 87 84 83 82 86 88 88 86 88 90 80 76 74 58 61 67 67 68 66 64 64 65 62 60 60 60 60 62 63 62
79 74 80 77 73 76 76 78 76 74 78 84 81 78 75 70 76 68 68 62 59 61 54 50 51 49 48 53 54 57 57 59 60 62 62 60 60 60
82 81 74 69 68 67 68 67 65 75 79 81 80 66 63 61 60 63 68 61 63 58 55 49 51 46 45 43 55 59 57 56 55 56 58 60 62 60
82 84 77 73 68 63 68 72 72 68 68 62 59 62 62 62 77 78 68 67 61 56 60 55 52 47 48 50 65 63 62 64 63 63 63 61 60 61
80 70 67 68 71 63 60 66 65 65 69 64 65 65 65 64 66 79 79 70 62 61 62 69 56 55 53 54 70 69 66 66 65 65 64 61 60 62
56 65 65 64 61 70 65 72 53 55 60 68 65 63 64 63 61 69 75 77 64 60 64 69 66 70 64 59 54 71 68 67 64 63 64 64 65 65
56 56 66 62 60 56 62 57 54 57 65 65 52 49 55 60 69 70 76 84 80 76 69 82 76 74 83 62 67 57 53 63 64 68 65 66 67 62
56 55 59 66 57 58 64 50 56 58 63 53 50 56 62 66 69 68 68 87 91 88 66 84 89 78 78 76 67 67 63 59 55 56 63 67 68 69
56 58 64 58 52 54 51 51 61 57 50 53 62 66 71 76 78 78 76 81 78 87 79 90 93 90 87 84 78 68 69 69 72 73 73 73 72 73
58 66 64 55 54 56 56 58 59 54 58 65 72 79 80 84 91 86 81 80 83 83 87 86 90 89 91 89 86 80 82 75 81 86 81 78 75 71
65 70 62 54 52 53 55 60 61 62 67 72 75 74 80 85 77 79 85 82 86 83 84 88 90 93 90 85 86 87 79 90 79 79 81 79 72 71
74 66 59 51 51 51 54 57 62 65 73 75 80 80 75 74 76 77 84 85 90 88 84 80 80 82 86 93 93 82 80 79 80 84 84 84 78 76
71 68 62 58 58 54 55 56 60 64 67 76 80 82 83 83 83 81 84 88 88 84 86 83 85 84 81 75 85 86 78 80 81 83 85 91 88 77
71 73 73 69 68 68 68 73 75 70 87 86 85 85 89 90 88 87 86 86 84 81 84 84 90 94 94 91 64 73 92 83 82 81 79 83 90 83
76 77 76 72 73 75 76 80 79 79 83 84 87 88 90 91 92 90 87 90 87 84 86 86 92 93 94 90 88 75 66 84 83 86 86 78 77 73
71 73 71 73 78 81 80 81 85 85 88 91 90 92 92 93 90 88 86 83 82 85 92 88 84 75 93 92 92 78 69 68 75 89 87 88 86 78
66 70 71 76 80 83 83 84 86 87 89 89 89 90 89 90 91 89 84 89 86 87 90 87 83 87 92 93 90 85 76 67 65 68 69 75 90 91
68 72 76 78 80 82 84 85 88 87 88 89 90 89 90 93 88 87 87 85 87 89 86 88 84 84 90 91 91 89 88 83 76 78 76 70 72 74

GFSNE_sfc_rhum_072.txt.gz
RH
90 88 90 88 84 82 83 82 82 82 68 76 81 76 75 76 83 76 78 89 83 86 78 88 86 86 91 93 92 92 90 88 88 90 88 86 83 79
80 77 76 74 76 78 81 80 85 88 85 86 88 82 78 72 78 79 81 87 87 86 90 88 87 88 87 88 92 92 89 86 84 84 84 83 84 81
74 74 76 73 76 75 79 78 81 87 96 95 88 84 84 77 75 74 78 78 80 83 84 86 86 85 86 87 86 87 86 85 82 80 80 80 78 76
71 71 72 71 77 74 75 79 84 87 91 92 91 93 93 81 77 75 71 64 70 80 82 83 82 80 80 82 83 83 84 82 81 81 78 76 75 74
68 68 71 70 77 77 78 80 81 74 80 81 87 79 80 74 75 71 71 69 62 65 72 73 74 73 74 75 75 74 73 72 72 71 70 65 65 66
77 76 75 76 77 83 83 80 74 73 71 72 78 83 80 74 77 71 65 54 54 45 50 58 63 63 66 68 69 68 67 63 61 63 64 64 62 63
73 70 74 73 74 72 66 66 63 62 68 75 72 68 63 57 60 54 55 51 48 48 44 42 43 42 44 46 49 52 54 58 62 63 64 64 64 61
78 72 61 58 62 68 67 68 63 60 64 66 64 49 48 48 46 53 60 53 58 48 47 40 39 37 36 36 44 55 56 55 55 55 56 57 58 59
81 72 64 58 54 46 54 60 68 68 65 49 46 48 48 52 74 75 61 61 55 44 50 44 36 34 37 36 54 65 60 60 62 60 58 59 61 61
71 54 51 53 62 54 50 50 48 55 60 53 55 56 58 58 59 71 71 58 49 46 50 63 43 47 45 44 55 66 67 66 65 65 64 62 59 62
51 52 50 50 62 70 55 60 38 41 54 65 63 60 62 63 59 55 68 68 59 48 53 63 60 62 56 53 48 68 71 72 68 65 64 62 62 65
40 42 66 58 61 56 53 45 40 46 53 53 40 38 45 51 62 54 61 86 76 75 63 78 74 71 82 57 62 55 49 58 66 67 69 68 67 64
42 39 44 64 56 58 62 44 48 50 53 44 37 41 46 52 55 58 62 88 88 84 65 77 84 78 78 76 65 62 62 58 54 52 60 64 66 66
41 40 48 58 52 52 48 50 61 59 41 39 46 51 58 65 71 72 71 75 72 86 75 93 90 87 89 85 79 66 67 66 71 72 71 68 70 72
46 53 64 58 53 48 53 56 63 43 43 52 59 71 73 79 89 85 82 85 90 87 91 93 88 88 92 91 85 78 81 74 82 84 80 75 73 69
62 62 58 60 55 51 46 44 44 44 50 56 62 63 70 80 77 75 82 81 85 80 92 88 88 88 89 82 82 84 78 87 78 80 82 78 71 67
59 59 56 46 41 38 38 41 43 47 55 58 68 69 68 70 72 74 78 81 86 84 82 80 78 80 83 90 92 80 76 78 83 87 82 83 78 75
67 63 59 54 49 42 40 39 42 51 52 62 66 70 75 76 76 76 78 82 84 77 78 76 77 79 75 71 81 87 76 78 81 83 80 87 85 77
58 61 64 60 57 54 56 59 64 58 73 77 76 77 78 79 80 79 78 78 78 76 77 77 82 86 92 88 64 73 88 81 81 79 79 82 86 81
61 64 65 59 56 58 62 70 70 68 73 76 78 81 84 84 83 82 79 81 78 77 79 80 84 88 92 91 90 76 69 86 85 85 85 79 75 69
62 66 61 58 59 63 68 72 73 75 78 82 81 83 83 85 83 80 78 75 76 80 87 84 81 71 89 92 92 76 70 68 74 88 87 89 83 77
60 59 56 60 65 70 74 75 77 78 80 81 82 83 82 83 85 83 79 84 82 82 86 84 82 83 89 91 88 84 76 68 65 66 68 76 89 88
58 54 59 66 71 73 75 75 79 79 79 82 84 83 84 87 81 82 83 81 83 84 82 84 80 79 84 86 87 85 87 83 74 77 74 66 70 76

GFSNE_sfc_rhum_075.txt.gz
RH
88 91 92 91 92 90 89 88 86 87 80 87 87 78 78 79 84 76 78 85 80 85 85 84 85 85 83 83 90 84 90 90 90 91 88 84 83 78
78 76 80 79 80 80 81 81 83 88 88 90 90 83 79 73 77 76 79 82 84 82 83 87 86 83 84 88 90 90 87 88 90 84 81 80 81 83
74 75 78 76 78 76 82 80 83 88 94 97 90 89 88 83 76 73 76 78 80 83 83 83 84 83 82 83 85 87 90 89 87 85 83 80 78 78
71 72 73 72 79 76 79 83 87 89 94 94 93 98 94 86 78 76 70 64 70 72 78 78 78 80 79 80 82 82 82 82 82 81 78 72 72 72
67 69 71 71 80 81 84 85 87 78 84 84 95 85 84 77 81 74 73 72 57 53 56 65 73 74 74 76 77 76 75 75 74 74 72 70 66 64
74 73 75 77 80 86 86 84 78 82 79 78 84 84 84 76 80 75 74 66 64 46 50 54 56 57 64 64 67 68 68 66 64 64 64 63 62 62
74 72 78 75 74 73 69 72 69 72 79 88 86 80 74 67 68 62 69 67 64 63 62 57 57 59 58 47 48 52 56 57 60 63 64 63 63 63
84 75 63 58 64 66 65 67 67 73 76 87 84 62 58 59 59 72 81 75 84 65 65 59 55 58 53 53 56 59 59 54 54 54 56 58 59 58
88 80 65 55 54 50 52 54 68 66 64 64 62 61 60 67 85 88 81 82 77 62 64 65 53 54 57 41 56 64 66 62 59 59 57 55 56 58
77 58 55 56 68 58 57 59 54 60 67 54 66 67 67 69 69 78 82 73 68 62 66 87 65 69 65 64 58 66 66 65 65 64 64 62 62 58
56 53 52 51 62 68 63 69 46 52 57 61 60 57 58 59 62 74 88 88 84 63 72 81 82 84 79 73 66 60 64 68 69 67 66 61 61 62
45 49 63 63 60 59 66 56 51 56 62 63 54 55 53 59 58 64 83 95 94 94 83 92 86 89 96 80 82 77 74 54 58 65 68 69 63 76
50 45 52 60 55 56 61 60 55 64 56 56 47 50 56 63 68 73 76 88 88 87 80 91 92 81 85 88 92 91 86 83 81 76 60 60 67 69
48 44 56 57 52 52 54 46 58 65 54 48 55 66 74 84 89 89 86 90 86 89 84 94 97 96 92 89 91 93 94 93 95 92 89 74 71 68
53 52 62 59 52 54 49 53 58 57 51 64 76 88 91 96 94 94 90 90 91 90 83 86 94 93 96 95 91 82 86 92 87 93 85 85 95 95
60 74 67 62 58 56 53 50 53 50 56 70 80 84 89 94 94 93 92 87 91 86 88 94 96 96 93 87 88 88 82 93 94 93 88 87 79 80
63 67 69 64 54 47 46 47 50 52 67 73 84 87 85 89 91 92 94 94 90 87 86 91 93 89 86 93 96 90 89 89 90 92 89 88 78 87
72 70 68 69 64 53 48 46 50 56 67 79 84 88 91 93 93 93 94 95 95 93 95 94 91 94 90 85 79 93 92 91 92 88 82 92 87 82
76 74 75 77 77 74 74 78 81 78 87 92 92 93 94 94 89 94 93 94 92 91 93 94 95 93 92 94 88 69 94 94 95 92 89 89 91 87
70 73 76 76 76 78 80 84 86 88 89 90 92 93 95 96 95 94 92 92 91 92 92 94 93 91 96 92 93 83 72 91 91 91 91 86 82 72
69 72 72 78 79 82 83 86 89 89 90 93 93 94 94 95 93 91 91 77 81 89 91 87 88 76 96 97 96 86 77 71 77 89 91 93 87 83
67 70 71 74 78 83 86 87 88 86 88 91 91 91 92 92 93 92 90 91 88 88 88 87 87 91 96 96 91 87 82 77 70 68 70 75 91 94
74 72 74 76 81 84 85 86 87 87 88 90 91 91 92 93 90 89 88 82 88 91 89 91 89 89 92 93 88 91 89 84 82 84 80 68 69 75

GFSNE_sfc_rhum_078.txt.gz
RH
94 93 96 94 93 94 94 95 96 96 94 98 98 91 92 95 84 83 87 83 80 81 84 83 81 80 83 84 84 87 80 84 84 84 86 85 81 79
87 88 91 87 89 90 90 93 91 97 96 98 96 94 89 82 79 80 85 81 81 81 82 82 83 81 80 85 87 85 86 89 91 91 88 87 81 78
83 88 84 83 88 90 89 89 92 94 98 99 96 94 94 90 81 77 79 89 91 78 79 80 81 81 80 81 82 86 89 89 85 85 87 86 87 87
85 82 85 82 90 88 92 94 95 94 97 94 97 100 97 85 82 80 74 73 78 63 70 76 77 78 79 77 80 82 82 81 84 84 83 82 82 83
84 84 88 91 95 95 95 92 93 87 92 97 99 91 90 85 92 88 85 85 59 55 53 57 64 71 75 76 77 76 75 76 77 78 76 76 74 70
85 86 88 91 88 92 90 89 85 91 91 85 91 91 90 89 93 83 78 74 76 50 54 54 54 56 56 59 62 65 67 70 69 69 68 65 64 62
86 82 84 77 70 74 79 84 80 83 84 96 95 89 82 78 76 79 83 82 81 76 74 69 68 66 65 61 62 60 60 59 60 62 66 64 62 63
90 80 71 66 65 60 63 65 70 84 84 95 96 72 72 78 90 91 95 88 92 81 74 71 66 61 62 65 52 61 62 59 55 55 56 59 61 62
93 83 70 59 62 62 53 59 65 61 62 78 77 79 85 85 88 92 92 93 91 78 76 77 73 73 76 59 59 60 62 65 61 58 58 56 55 56
83 69 69 77 73 69 68 67 61 79 80 69 87 88 88 87 85 87 88 85 84 78 78 94 88 85 81 80 60 60 70 67 66 64 63 62 62 62
63 68 65 73 64 61 72 72 55 64 57 56 56 52 51 52 61 87 96 95 95 82 89 91 94 96 90 89 78 59 60 62 64 67 68 70 65 61
53 67 60 69 60 59 76 69 60 69 73 71 62 67 56 63 57 75 95 97 98 98 92 96 97 96 98 92 92 86 88 67 63 61 59 64 69 83
56 55 68 57 56 54 60 75 63 74 64 68 57 60 66 77 86 87 89 96 96 96 85 95 99 97 92 93 97 96 92 89 89 86 74 71 64 65
55 54 72 58 52 52 56 48 55 66 70 56 63 78 86 95 95 96 92 94 95 95 87 94 98 98 99 99 97 96 96 88 98 97 86 74 72 76
60 56 66 60 55 55 51 49 54 74 62 76 87 95 96 98 97 96 97 88 91 89 87 84 95 93 98 97 94 88 83 96 88 97 98 92 90 94
64 77 70 71 62 62 56 55 64 62 64 87 93 96 98 98 98 98 96 95 96 93 91 92 92 98 100 89 90 92 85 94 96 96 92 92 90 76
76 79 83 82 77 61 60 55 56 57 74 86 94 95 95 97 97 97 97 98 97 97 96 96 96 96 95 93 95 91 93 94 93 93 94 91 86 78
73 77 80 80 78 63 58 54 55 58 75 88 95 96 96 97 97 97 98 98 99 98 98 97 97 98 95 90 84 93 97 95 95 94 92 92 89 86
77 86 87 84 82 77 75 79 83 86 91 94 96 97 97 97 92 97 98 98 98 98 97 97 98 98 93 92 89 63 95 98 98 98 96 94 93 88
88 87 85 81 80 83 84 88 89 93 94 94 96 97 97 97 98 98 98 98 98 98 98 98 99 98 94 92 94 88 69 94 99 92 91 89 86 76
79 82 78 83 84 86 85 88 90 92 93 95 94 95 96 97 97 97 97 81 85 97 96 97 93 75 95 98 97 88 83 72 75 90 97 96 91 83
75 77 77 82 84 86 87 88 91 89 93 94 93 95 95 96 96 95 95 96 95 94 92 90 94 96 96 96 92 88 83 77 71 70 70 76 92 95
78 76 78 81 84 86 89 90 89 90 91 92 92 92 94 95 94 95 96 96 94 92 90 92 90 93 94 94 88 90 88 86 84 87 83 72 72 72

GFSNE_sfc_rhum_081.txt.gz
RH
96 93 95 94 93 94 96 96 97 98 99 98 98 90 95 90 87 84 89 81 80 81 81 80 79 79 82 85 83 83 87 82 82 83 83 82 79 77
93 87 90 92 93 91 93 91 94 97 97 98 95 91 88 85 82 82 87 83 79 79 79 82 82 81 78 82 85 88 86 88 87 83 80 83 84 88
84 85 87 89 91 95 95 94 93 93 98 99 96 94 93 93 82 79 80 92 88 71 76 78 79 80 80 79 80 83 85 90 86 88 91 91 89 88
87 84 86 81 90 90 90 91 92 95 96 99 98 100 95 86 86 87 81 79 73 58 61 67 74 77 79 79 77 79 81 81 86 87 86 86 85 83
88 85 91 94 95 96 95 94 95 93 93 97 99 93 92 89 92 89 88 85 59 55 54 57 58 63 67 73 74 76 76 76 76 78 79 82 80 76
89 92 92 92 91 94 90 89 86 94 93 92 92 93 92 93 94 80 77 77 78 54 56 58 57 58 54 58 63 65 67 68 72 72 71 69 67 65
85 82 83 77 72 74 78 83 81 84 86 97 95 93 82 78 79 82 82 86 84 78 72 66 71 69 72 66 61 59 59 60 61 62 66 68 64 63
87 78 74 70 63 62 64 63 71 79 80 96 97 77 75 83 88 92 97 91 92 83 75 71 70 74 72 68 58 61 61 62 56 55 56 57 61 64
92 82 70 60 63 63 59 65 63 62 68 74 75 80 87 85 90 93 91 94 92 81 76 73 85 80 82 67 59 64 66 63 65 62 60 58 55 54
87 78 76 74 70 65 65 66 75 75 78 69 85 89 89 86 84 88 90 87 88 83 85 94 94 91 88 86 60 61 65 68 69 67 64 63 62 61
67 65 73 78 64 61 72 69 57 68 55 57 58 51 50 51 66 84 96 95 96 89 91 93 95 96 93 94 84 68 68 62 60 60 65 68 72 61
66 65 68 70 61 59 77 62 66 69 73 68 59 68 59 63 64 78 92 97 99 98 93 95 97 97 96 90 92 85 88 72 71 68 68 68 63 88
58 60 68 57 57 57 70 65 65 75 67 68 58 60 68 79 86 90 91 95 98 98 88 92 100 97 98 97 96 97 91 86 87 85 75 70 68 72
59 56 65 60 56 54 58 54 53 69 72 58 63 77 83 94 96 96 90 94 96 95 92 93 97 98 98 96 98 96 96 94 98 97 96 77 72 69
60 56 68 61 56 55 52 49 53 75 66 76 87 93 94 96 98 97 98 97 93 90 88 84 96 95 98 98 98 88 90 95 91 98 98 98 97 98
65 70 68 72 70 65 57 57 67 67 66 83 85 89 95 99 98 98 98 97 97 96 92 95 94 93 100 98 95 93 97 94 98 96 94 96 95 95
81 79 83 84 82 71 66 61 59 60 74 83 86 86 89 96 98 98 98 99 97 98 96 95 93 96 97 97 99 93 93 98 96 95 98 95 96 96
80 80 81 82 81 72 60 57 58 60 71 82 86 91 96 97 97 98 98 98 99 98 99 98 98 98 96 92 91 96 98 97 97 96 98 99 95 95
71 82 81 83 83 82 78 82 82 78 87 89 89 92 95 97 92 98 98 98 98 98 98 98 99 99 98 94 91 69 96 99 98 99 98 98 95 88
83 88 88 88 88 88 88 87 88 88 90 89 92 93 96 96 97 97 98 98 98 98 98 99 100 99 98 96 96 92 76 97 99 92 94 93 86 77
78 86 86 89 89 89 89 90 89 89 92 93 92 92 94 96 96 96 97 85 87 98 97 98 94 80 91 95 98 90 85 73 77 97 99 98 93 88
80 84 82 85 86 88 90 89 90 88 92 93 92 93 94 95 94 94 95 95 95 95 94 94 95 95 97 96 92 90 84 81 74 69 70 76 92 95
77 81 84 84 84 87 90 90 89 89 90 92 92 93 93 96 92 92 93 94 96 98 95 93 97 99 96 95 89 91 88 88 85 89 84 71 72 74

GFSNE_sfc_rhum_084.txt.gz
RH
96 95 96 95 95 95 96 98 97 98 99 98 97 87 97 95 88 93 94 80 79 79 79 80 81 80 81 82 82 86 89 86 84 80 81 83 81 80
96 93 94 93 92 92 93 92 94 97 98 96 96 91 90 82 81 90 89 84 75 78 78 82 81 81 78 80 82 84 87 89 87 84 81 82 81 82
92 90 87 88 93 96 96 93 95 94 98 99 96 94 91 88 87 80 88 94 86 71 74 77 79 81 79 76 78 81 83 87 89 90 82 82 86 89
90 84 87 84 90 89 92 93 93 94 97 99 99 100 95 87 88 91 85 72 72 59 58 61 69 72 76 77 78 79 80 79 81 87 88 88 88 86
91 84 88 88 91 92 93 94 95 94 94 96 99 94 93 86 92 86 80 79 56 56 59 61 60 58 62 68 71 73 74 77 78 78 79 81 81 80
93 93 92 93 93 93 90 90 88 96 94 93 93 94 92 94 86 78 77 80 74 54 56 56 60 65 60 59 59 62 64 69 72 74 72 72 72 72
86 82 85 81 75 74 79 82 84 88 93 98 97 95 84 77 75 81 79 84 81 80 72 71 70 71 72 69 67 63 62 62 62 64 67 71 70 68
88 80 76 72 66 62 61 63 68 76 83 92 96 81 75 81 82 88 95 87 90 84 75 72 77 83 82 80 61 66 64 65 61 58 60 60 61 63
88 81 72 61 64 68 65 69 68 66 64 69 68 72 80 82 91 93 90 93 90 83 78 71 90 84 86 71 62 67 67 66 65 64 62 60 57 55
90 82 79 74 68 64 62 74 75 73 76 68 79 82 84 86 83 86 89 87 88 84 87 94 95 90 91 90 71 64 64 64 66 69 69 68 66 61
74 73 78 79 63 63 68 68 64 69 58 63 63 60 63 66 74 84 96 93 95 88 90 93 95 96 92 95 86 68 72 67 66 67 63 64 68 76
75 74 68 70 62 62 72 59 59 64 71 65 63 65 63 66 64 76 92 97 98 98 92 94 97 98 95 89 92 90 86 69 70 71 70 68 70 91
65 66 71 64 59 57 70 64 64 70 68 64 58 61 70 81 87 89 86 95 98 98 84 91 100 97 98 98 96 97 91 85 85 87 72 71 69 73
58 57 64 60 58 55 64 63 55 70 72 59 61 74 82 94 96 95 89 92 92 92 94 95 97 97 97 97 98 96 97 97 99 95 97 83 74 69
60 58 58 62 60 57 54 52 54 77 66 73 82 92 96 96 96 96 94 95 98 94 94 92 96 95 98 96 96 93 94 96 93 99 98 97 98 98
63 73 65 70 68 67 61 61 67 71 68 79 87 92 97 98 94 93 95 98 97 95 92 96 96 96 98 99 99 96 98 98 98 98 97 95 95 95
82 77 82 84 88 83 78 70 63 64 75 79 87 89 90 93 93 95 97 99 98 98 97 95 92 96 96 95 99 97 96 98 97 96 98 98 96 95
87 85 86 86 87 83 75 66 65 62 73 83 89 90 91 93 95 98 98 98 98 98 99 98 98 96 95 92 92 95 95 99 98 97 98 100 96 95
79 93 88 86 83 85 86 86 84 78 87 89 89 88 92 93 90 96 98 98 98 98 98 98 99 99 100 98 89 75 99 99 98 99 98 98 94 87
79 84 87 86 87 89 90 90 89 90 90 88 90 90 92 94 96 97 97 97 97 98 98 99 100 99 98 97 95 92 75 98 98 94 97 95 87 78
73 80 78 85 87 90 90 91 91 91 93 93 91 91 92 94 93 94 96 84 93 97 96 97 94 82 95 98 99 94 92 73 78 97 98 98 90 91
78 78 80 85 88 91 91 92 92 90 92 93 92 92 93 93 92 92 94 95 94 92 92 93 96 98 100 96 93 91 87 84 73 68 68 77 95 95
84 83 84 86 88 94 96 93 91 90 90 91 92 94 96 96 92 90 91 91 94 96 94 94 98 99 96 95 91 93 92 92 87 90 85 73 72 73

GFSNE_sfc_rhum_087.txt.gz
RH
97 97 97 96 97 96 97 98 99 87 99 98 96 89 91 90 86 87 93 81 76 78 78 80 81 78 76 79 80 83 87 88 86 81 80 80 84 79
97 95 95 96 96 96 95 95 97 99 99 96 97 94 92 84 84 85 88 83 74 73 79 81 80 81 78 79 80 80 84 87 87 84 80 76 81 79
94 93 91 92 96 93 94 94 94 95 99 99 96 94 91 87 83 87 90 88 85 67 68 72 77 77 79 78 78 80 82 84 88 89 89 80 83 81
93 92 89 84 90 92 92 93 94 94 98 99 99 100 95 89 88 91 86 65 71 62 62 62 65 68 72 74 75 77 79 81 82 87 89 88 91 87
93 92 90 87 90 92 94 94 95 93 95 97 99 95 94 86 86 88 76 78 56 56 61 63 63 61 64 61 63 67 73 76 78 78 82 84 87 87
92 93 89 90 91 92 90 91 90 94 93 94 94 95 94 88 80 82 77 77 72 55 55 62 61 69 62 62 64 64 65 69 72 75 75 75 75 76
87 82 84 81 78 76 78 80 88 94 97 97 95 93 88 77 77 78 76 82 81 81 69 72 70 77 80 78 73 68 65 64 65 68 69 72 74 72
89 81 76 72 69 64 62 65 68 82 88 96 93 92 79 78 79 80 89 81 87 84 74 72 80 82 82 83 64 69 64 66 64 62 63 64 64 65
90 82 70 65 70 79 72 74 71 67 64 76 76 73 74 77 88 91 85 89 86 83 78 68 88 83 85 76 64 66 68 70 68 66 64 64 61 59
87 75 80 74 68 64 68 78 73 77 77 68 75 77 79 83 82 84 88 86 86 83 86 93 92 84 87 90 71 70 67 64 65 66 69 72 73 66
78 83 83 82 70 60 67 74 77 71 61 64 67 68 71 70 76 86 95 92 92 85 89 91 93 92 88 91 83 74 71 73 69 68 70 72 70 77
79 77 71 78 67 66 80 59 63 66 72 69 71 66 69 64 68 74 90 96 99 98 93 94 95 95 94 87 91 88 81 69 68 72 73 71 69 92
74 77 79 67 65 61 68 62 59 65 67 63 55 61 70 82 84 87 84 95 97 98 89 91 98 96 97 96 92 97 92 85 87 82 78 73 70 74
64 62 65 67 61 58 67 66 56 67 72 61 60 69 78 90 94 94 89 92 90 91 92 93 97 97 98 98 96 95 97 98 98 95 97 81 71 69
63 60 59 60 62 60 58 57 55 77 70 74 81 91 92 94 96 97 95 94 94 90 93 96 96 98 98 98 99 98 95 95 98 99 98 98 98 98
66 74 64 66 70 70 64 63 69 78 74 82 86 90 98 99 98 95 96 96 96 94 89 95 96 97 98 98 98 98 98 99 98 98 98 98 92 92
82 78 84 87 89 85 79 72 70 70 83 82 96 97 97 98 98 96 98 98 98 97 96 94 92 95 98 96 100 97 96 99 97 96 97 98 96 95
91 83 83 87 88 86 84 79 74 69 73 87 91 95 96 98 98 98 98 98 98 98 98 97 97 96 94 91 89 96 97 95 98 98 98 100 98 94
85 95 90 88 84 87 86 88 86 80 88 90 90 93 95 96 89 96 97 98 98 98 98 98 99 98 100 97 88 80 94 99 98 99 98 98 96 89
77 84 93 90 87 87 88 89 89 91 89 90 92 92 93 94 97 95 96 96 94 96 98 99 100 99 98 96 96 89 78 99 98 97 98 96 87 77
79 84 86 88 89 91 89 90 90 92 93 92 89 89 91 94 92 91 93 83 88 94 94 94 91 80 96 98 99 92 93 73 84 95 98 99 91 92
77 76 82 85 88 90 92 93 95 92 94 94 91 90 90 90 93 91 90 91 88 90 93 94 92 98 99 98 93 90 92 89 72 68 69 82 97 97
88 84 83 86 88 89 92 93 96 96 93 91 92 92 91 95 95 94 90 90 91 93 92 94 95 96 95 96 92 94 93 93 93 92 87 74 73 72

GFSNE_sfc_rhum_090.txt.gz
RH
96 98 97 97 98 98 99 96 94 94 98 98 96 91 91 90 86 86 93 78 76 76 77 77 80 77 77 78 80 80 84 85 83 84 78 81 80 81
97 97 96 97 96 97 97 97 98 99 97 96 97 94 95 85 86 84 86 78 76 73 76 80 80 79 78 78 79 80 81 86 87 89 81 78 78 83
93 95 93 92 96 97 96 96 96 97 100 99 96 95 94 90 88 87 83 82 82 64 66 71 74 74 76 75 76 78 79 82 87 89 90 79 77 82
94 94 92 84 89 90 92 94 96 95 98 99 99 100 96 91 88 89 73 58 70 64 63 64 62 68 67 66 69 74 77 80 84 88 90 92 86 85
94 93 93 87 88 90 92 95 96 94 97 99 100 96 95 88 87 78 73 74 53 57 58 65 68 64 61 62 65 67 72 76 78 82 86 88 88 89
92 92 88 88 89 92 91 92 90 95 94 97 96 97 95 86 78 82 77 73 68 54 55 63 64 64 66 67 68 67 66 70 73 76 79 81 82 83
87 82 84 82 77 82 79 83 86 94 95 100 97 94 90 82 83 76 79 76 78 80 65 73 73 77 82 84 76 66 66 65 68 70 72 75 76 75
90 82 76 72 74 64 62 63 69 85 93 98 95 91 88 80 77 76 93 77 83 85 72 71 78 78 80 83 66 68 69 65 64 65 66 66 66 68
93 87 70 64 73 86 79 78 73 68 66 86 87 85 77 75 86 90 82 85 82 81 75 66 82 81 80 78 65 66 67 70 70 68 68 66 63 62
92 79 69 74 70 68 75 76 77 80 79 68 71 75 78 82 81 84 86 84 83 81 82 90 88 80 82 88 71 68 65 68 68 68 69 71 75 73
80 72 74 80 69 61 68 75 79 75 61 66 70 70 72 72 78 83 90 89 89 82 87 88 91 90 85 89 79 76 70 71 68 69 68 69 75 77
73 75 71 83 73 67 72 66 70 77 76 70 74 69 75 68 70 70 89 96 97 96 91 92 93 95 93 86 89 86 79 70 70 73 72 69 70 89
76 81 84 72 68 65 73 68 60 64 70 63 60 64 75 81 82 82 80 94 97 98 90 90 98 95 95 94 89 91 88 80 82 77 80 70 66 73
67 73 77 71 67 64 65 70 58 65 78 65 61 71 80 89 95 92 86 90 91 92 91 92 97 96 97 97 94 90 91 91 94 87 91 80 71 71
65 62 61 60 63 64 60 68 60 79 73 78 79 89 91 96 97 98 98 96 95 94 92 93 96 96 97 98 94 92 94 93 94 97 94 92 93 93
72 77 66 67 66 75 69 65 73 83 77 84 88 92 97 99 99 98 98 99 98 98 95 95 96 96 97 98 97 97 95 98 95 95 94 94 89 89
83 78 82 86 91 90 82 74 73 76 89 84 94 94 92 96 98 98 98 99 98 97 97 96 93 93 96 95 98 94 94 97 96 97 95 96 94 93
89 86 86 88 91 90 87 84 80 74 84 91 92 93 94 96 97 99 98 98 98 98 98 98 97 96 94 89 88 96 99 99 98 97 97 100 99 92
92 97 94 90 84 86 87 91 88 85 91 90 92 93 95 96 89 98 98 98 98 98 97 98 98 98 99 92 83 79 98 98 98 98 97 98 97 91
79 93 97 92 89 89 89 90 92 94 92 90 92 91 94 94 96 95 96 95 95 97 96 96 97 98 96 93 91 88 80 99 98 99 98 94 87 75
83 87 89 92 92 91 91 92 92 94 95 94 91 90 90 91 88 89 90 80 85 93 94 91 89 79 96 96 98 88 85 75 86 95 97 99 96 93
89 86 84 86 90 92 93 93 95 92 95 95 93 91 90 89 87 87 88 91 88 92 92 97 97 98 100 97 94 89 83 81 72 69 74 84 97 98
82 81 82 86 89 90 92 93 93 92 93 93 94 93 92 93 87 85 90 92 91 93 94 97 98 98 98 97 92 93 93 92 89 91 85 74 73 72

GFSNE_sfc_rhum_093.txt.gz
RH
86 88 89 85 87 88 87 84 84 79 74 89 89 84 83 84 83 80 86 80 75 75 76 79 79 78 76 78 79 81 81 84 84 84 84 79 80 78
83 85 86 85 85 86 86 86 89 89 87 88 90 86 86 82 83 77 78 79 75 71 74 78 77 76 76 76 77 79 79 82 86 89 89 78 80 77
79 83 84 81 80 81 84 84 86 89 98 98 93 92 93 87 86 80 76 75 68 67 67 70 71 73 72 70 73 76 78 80 86 90 92 77 78 80
80 83 82 79 79 78 79 82 86 88 95 97 96 99 94 92 88 88 59 52 63 65 66 67 64 67 64 66 67 72 77 78 84 90 90 92 86 87
80 81 82 78 79 82 82 85 89 86 92 96 98 92 92 87 88 80 71 63 44 55 61 65 68 65 63 64 67 67 72 76 79 85 89 88 90 90
80 79 77 78 80 87 89 88 85 90 91 95 95 96 93 85 80 81 75 62 55 45 51 60 64 68 70 70 70 67 68 72 74 78 83 86 87 86
79 77 78 79 77 80 74 77 78 88 91 98 96 94 91 83 78 72 70 60 59 58 48 54 53 55 66 71 68 66 65 66 71 72 74 77 81 81
85 77 74 74 72 65 63 64 65 78 90 95 96 92 83 74 64 61 66 59 55 62 52 54 56 56 60 71 66 67 66 64 65 67 68 69 70 72
91 87 69 64 71 74 76 70 66 67 65 76 80 78 74 65 72 79 80 70 58 62 56 51 58 58 60 67 62 64 66 68 69 70 70 65 64 65
93 82 67 62 56 62 60 60 58 64 64 54 58 61 60 65 64 74 72 65 69 67 63 69 62 58 62 66 71 69 64 65 67 68 69 71 74 74
78 69 63 61 60 62 58 65 60 64 61 70 70 71 70 71 67 65 72 73 67 63 68 67 68 64 65 67 60 74 70 68 67 66 67 68 76 75
74 69 76 64 69 66 56 52 54 60 61 63 61 66 68 66 67 59 76 85 80 79 74 79 76 74 82 71 70 66 59 68 70 70 69 67 74 65
72 64 60 72 70 68 70 52 48 50 64 57 54 53 64 65 64 66 67 86 86 85 75 79 90 80 81 76 71 71 68 62 60 58 76 68 65 67
59 53 57 70 72 69 67 70 59 60 60 51 49 53 62 71 78 78 75 79 76 88 82 88 92 88 87 81 72 74 77 75 78 71 72 74 67 68
50 53 62 65 70 68 66 71 64 65 62 63 62 69 72 80 92 91 90 89 88 90 90 87 90 91 90 87 82 77 79 79 82 88 81 75 73 69
70 67 60 63 64 69 68 65 66 70 64 64 64 66 78 85 86 88 90 90 89 87 90 90 90 89 90 85 83 81 77 88 84 83 83 80 71 68
76 68 67 68 69 75 71 64 65 68 75 68 71 70 71 79 82 89 89 91 88 87 86 83 85 85 86 88 89 80 77 83 84 86 85 83 77 75
79 71 68 68 71 71 77 72 66 66 70 79 76 74 76 82 84 91 92 92 90 88 88 87 87 85 84 75 83 81 80 81 82 86 87 91 84 73
84 83 80 79 78 84 85 82 81 78 86 83 83 84 83 84 85 89 91 90 89 87 88 90 92 91 88 75 61 78 86 84 83 81 82 84 87 77
83 88 92 89 86 86 84 85 84 83 85 85 87 87 89 86 87 87 87 90 86 85 88 91 93 93 90 80 78 75 80 88 86 83 84 76 72 71
81 84 88 88 89 88 87 88 89 89 90 89 89 89 89 89 85 84 82 78 80 83 85 84 85 75 88 87 88 75 72 76 81 91 89 86 82 74
81 80 84 86 87 90 91 90 90 89 91 91 89 90 88 88 85 82 77 79 78 82 83 82 88 91 94 91 83 79 71 68 69 82 80 84 89 92
88 93 85 88 90 92 91 91 91 91 90 91 92 90 90 92 83 79 77 76 75 80 86 89 89 88 88 90 89 88 87 83 76 80 75 70 71 75

GFSNE_sfc_rhum_096.txt.gz
RH
71 73 72 72 74 76 77 80 80 75 60 59 74 76 80 79 81 75 83 86 78 77 76 78 79 76 75 76 78 80 80 79 83 83 86 83 79 78
67 71 71 71 72 76 80 79 83 87 85 73 78 75 78 77 81 74 78 80 74 71 74 76 75 76 74 74 76 77 78 80 83 86 89 84 80 80
68 70 73 74 74 78 81 78 78 79 91 77 87 88 90 86 82 74 71 73 76 70 68 68 71 70 69 70 71 75 76 78 83 89 91 86 78 80
67 70 70 69 72 67 65 69 72 78 92 93 94 98 94 88 84 82 60 54 66 70 67 67 66 65 65 66 67 69 76 77 82 90 91 93 83 84
64 65 66 68 71 67 68 72 78 76 82 88 94 90 91 88 87 81 69 59 45 57 57 68 68 65 65 66 66 66 71 76 78 87 91 92 92 90
66 66 66 66 66 73 77 80 80 84 84 88 93 94 91 85 84 85 81 68 61 41 52 56 60 65 67 68 67 66 69 73 75 78 87 90 90 89
67 64 69 73 76 72 67 71 71 76 82 93 97 94 92 87 87 82 84 71 56 49 45 46 46 48 57 60 62 68 66 68 71 73 76 82 86 87
72 68 67 75 72 70 67 65 63 70 81 92 96 94 87 83 74 75 72 70 69 53 51 51 50 49 56 64 66 68 68 66 68 70 70 73 74 79
77 76 67 58 68 64 74 69 65 68 65 72 84 83 81 74 75 74 66 63 53 60 53 48 51 50 57 59 66 65 66 69 70 71 73 72 69 68
82 73 65 59 59 59 50 55 46 48 50 43 53 59 59 60 61 68 69 57 55 55 55 65 52 52 54 63 74 70 70 70 68 68 70 74 79 74
71 68 64 58 56 62 50 57 46 51 64 69 67 66 66 62 53 54 64 65 58 54 58 57 58 56 56 62 58 73 72 71 69 70 68 72 74 70
68 66 73 58 62 64 51 47 46 47 52 61 63 66 62 67 64 53 65 93 74 71 61 75 69 68 82 66 65 62 59 67 70 70 69 70 72 59
69 68 65 77 66 70 67 44 40 42 54 48 41 47 55 59 51 52 57 89 94 87 67 79 90 76 80 75 69 69 65 59 55 54 72 68 66 68
67 59 56 68 74 70 71 63 55 51 48 46 46 46 52 61 69 70 69 73 71 94 74 98 98 90 89 81 70 70 72 68 71 67 69 69 65 61
45 45 50 64 72 72 70 76 67 56 49 53 54 63 68 79 98 93 93 92 98 93 94 97 97 94 92 86 80 72 77 77 82 85 77 70 69 65
63 56 56 56 60 62 66 68 62 57 55 57 58 62 73 83 82 85 91 90 91 88 96 97 97 93 90 82 80 79 73 85 82 82 80 76 68 63
78 71 65 58 53 53 59 58 61 62 68 63 67 67 66 73 76 86 91 93 92 87 86 86 83 85 85 89 86 76 70 74 80 84 83 79 74 73
80 74 69 62 56 52 57 61 60 68 71 76 75 72 78 82 86 89 92 92 90 84 83 84 86 84 82 76 82 78 72 75 77 83 84 87 82 73
88 78 74 68 64 63 64 72 79 76 90 90 91 90 89 88 85 87 87 86 85 83 84 86 88 87 85 78 64 77 86 81 78 77 76 80 83 77
91 86 82 74 72 74 77 86 87 89 90 89 91 92 93 92 87 88 85 85 82 81 84 87 87 88 86 82 79 71 79 88 84 81 83 74 70 68
97 85 82 81 81 85 87 90 94 94 94 95 92 92 92 92 87 85 84 77 77 79 82 81 85 73 88 88 88 68 64 76 78 87 87 87 80 70
89 83 80 86 92 91 95 96 98 95 97 95 92 92 91 90 86 82 77 80 78 80 80 84 88 87 94 89 81 73 65 63 67 75 78 80 89 91
88 89 92 90 99 99 96 97 97 96 94 95 94 92 91 90 84 80 78 74 76 80 79 80 86 88 87 85 83 80 78 78 73 74 72 70 77 78

GFSNE_sfc_rhum_099.txt.gz
RH
75 78 76 75 79 80 80 79 82 82 71 74 82 80 84 81 85 78 82 82 78 77 78 78 76 75 74 74 74 75 78 79 80 81 83 83 83 79
71 74 74 74 77 77 82 82 85 85 87 82 87 83 82 77 80 78 81 79 73 72 74 74 74 74 72 72 73 74 76 78 80 85 83 89 86 80
70 70 71 70 76 78 82 81 84 85 94 85 92 90 90 87 83 76 75 77 82 72 69 70 71 69 68 68 69 69 75 78 81 86 88 92 85 79
73 73 72 72 80 78 77 79 79 84 95 92 95 99 96 93 87 81 60 57 76 80 70 68 66 65 65 65 66 64 71 76 78 86 89 92 92 83
67 70 72 73 78 77 78 81 83 78 87 93 98 94 94 90 90 83 69 61 50 68 57 68 68 66 65 65 65 66 70 75 76 83 89 92 93 91
69 72 70 73 76 81 79 84 82 88 87 91 92 96 93 88 88 88 85 73 64 42 58 60 60 57 60 65 67 70 68 72 74 78 86 90 92 92
70 67 72 74 78 75 71 74 75 83 85 94 98 98 97 92 94 89 91 82 71 67 65 59 61 61 64 63 65 69 67 69 72 74 79 83 90 89
73 71 71 80 78 76 73 67 71 79 82 88 98 98 94 90 80 85 91 87 91 70 68 68 69 66 71 78 69 67 69 70 72 73 74 76 77 83
77 78 74 65 74 69 71 73 71 68 68 76 85 91 89 83 87 88 85 86 79 75 71 67 65 64 71 68 70 67 68 69 70 73 77 78 72 70
84 77 72 64 68 69 64 68 53 54 56 48 66 71 73 75 78 84 84 74 71 67 68 90 66 65 70 80 74 72 73 72 70 70 72 77 78 75
75 72 70 64 63 67 62 72 57 59 67 65 66 65 65 61 64 76 87 87 80 71 73 78 74 76 72 77 74 71 72 71 73 72 71 74 70 67
71 72 75 64 64 68 57 62 65 61 65 80 80 77 70 70 60 67 88 97 94 91 78 92 90 92 96 81 79 78 74 64 66 66 71 70 71 77
80 75 72 73 67 68 67 56 58 56 59 64 59 68 73 71 68 66 76 99 98 97 80 95 97 94 96 95 94 91 82 76 73 67 70 69 68 74
79 68 68 78 74 70 71 59 50 50 66 63 63 64 77 84 88 91 86 88 92 98 86 99 98 98 97 96 94 94 94 94 94 91 93 75 67 58
71 74 72 71 79 72 72 73 63 69 64 72 77 89 92 97 98 97 97 96 98 97 98 97 98 97 97 96 95 94 94 96 96 97 96 94 94 92
70 67 60 65 70 77 76 77 83 70 69 76 84 90 95 97 96 96 97 97 97 98 95 96 96 95 97 96 95 95 94 96 97 96 96 95 88 81
79 70 66 67 71 72 79 81 79 76 78 80 91 86 86 88 93 96 97 98 98 97 98 98 94 94 96 96 97 96 94 95 96 96 95 96 95 94
85 79 72 69 67 63 66 72 75 75 80 86 87 84 85 89 91 95 96 97 97 96 96 97 97 96 96 94 84 96 94 94 95 96 96 97 97 94
93 86 83 76 70 67 69 75 80 78 89 90 89 91 91 91 86 94 94 95 96 96 96 97 97 97 97 95 96 79 96 95 96 96 96 96 96 95
95 90 86 85 80 74 74 80 84 86 88 89 92 92 92 91 91 92 92 93 93 95 96 96 97 95 96 95 95 95 81 96 96 96 96 96 90 73
98 97 97 98 95 86 80 83 88 90 92 92 91 91 91 91 91 88 88 81 84 92 93 93 91 76 97 96 97 95 92 81 85 96 95 95 95 95
98 98 96 98 98 94 92 93 94 92 93 92 90 90 90 90 88 87 84 87 85 88 90 95 96 95 98 97 97 93 91 92 77 74 75 79 95 96
96 97 94 95 99 99 99 97 95 94 93 93 92 91 90 92 86 83 83 82 83 86 88 92 97 97 89 90 92 97 91 91 93 93 86 71 74 73

GFSNE_sfc_rhum_102.txt.gz
RH
91 89 87 86 88 90 90 91 92 93 87 96 98 94 97 95 88 85 87 84 77 78 78 76 76 75 74 73 74 72 76 77 78 78 77 80 81 82
86 88 87 87 92 93 93 93 93 94 95 94 97 96 92 87 82 85 86 81 74 73 74 74 75 72 71 71 71 71 71 75 77 78 83 84 89 88
82 86 84 85 92 94 93 90 90 91 94 95 97 96 94 91 89 79 77 81 83 71 70 70 70 69 67 65 64 64 70 73 77 80 86 89 92 89
82 79 80 81 90 92 95 95 95 94 97 97 98 100 98 94 87 82 62 60 83 79 73 69 67 66 65 64 64 65 67 74 76 80 88 90 95 87
81 82 82 87 93 95 93 93 92 86 93 97 99 98 97 93 93 83 70 64 53 73 61 64 68 65 61 62 68 69 68 73 74 79 88 91 94 91
78 79 81 86 89 92 90 91 91 95 95 97 98 98 96 93 92 92 89 76 68 43 58 60 56 51 58 61 67 70 68 72 74 76 86 91 92 94
80 78 81 82 83 84 87 88 86 94 97 98 98 99 99 96 98 94 95 88 77 73 68 68 72 75 76 79 72 70 69 70 73 76 79 86 90 90
87 85 86 82 80 76 76 73 78 87 90 95 98 98 98 96 90 92 96 90 94 80 80 77 77 80 87 90 68 67 65 67 72 76 79 76 81 86
90 91 88 79 87 87 75 73 72 69 72 84 91 94 96 92 91 92 93 91 84 85 80 82 78 80 87 81 71 67 68 68 70 72 78 80 74 77
90 91 90 88 87 86 89 86 73 67 66 62 86 88 91 84 82 87 89 83 82 75 80 93 79 80 88 93 70 70 71 71 71 72 74 73 77 74
93 91 88 82 80 75 84 82 69 71 64 60 66 66 68 75 81 90 93 90 91 83 83 86 84 86 83 92 90 70 69 72 69 70 74 72 68 78
92 90 84 79 73 75 76 71 75 76 89 90 88 78 77 69 63 84 91 89 96 94 86 94 96 96 97 92 90 90 86 62 61 67 71 70 73 84
89 88 90 76 71 74 68 66 74 69 78 92 93 92 91 78 74 84 91 99 98 98 88 97 98 97 98 98 98 96 87 84 81 76 72 69 65 74
88 81 80 80 77 74 74 65 57 64 81 78 74 86 94 95 95 96 91 95 99 95 90 97 99 97 99 98 97 97 97 97 96 95 97 77 70 60
86 84 82 78 81 75 75 73 57 76 80 81 86 92 96 96 98 99 98 98 99 98 97 100 99 99 99 99 97 96 97 97 98 98 98 97 96 97
88 89 81 81 86 86 81 81 86 80 78 85 94 97 99 99 100 99 99 100 99 99 96 98 98 97 99 98 97 98 98 96 99 98 98 98 92 88
95 87 88 89 90 95 93 94 90 85 84 87 96 97 98 98 98 99 98 99 99 100 98 100 98 97 98 97 98 98 98 98 98 98 97 98 97 96
98 98 97 94 79 81 87 91 91 86 83 86 93 91 95 95 97 99 99 99 98 98 99 100 100 98 97 93 87 97 98 97 98 98 98 98 98 93
99 99 98 97 94 77 78 86 88 84 92 89 89 91 93 94 87 97 97 98 98 97 97 98 99 98 99 96 97 82 97 98 98 98 99 99 98 96
97 98 98 98 87 75 75 82 86 91 88 89 92 92 93 92 95 96 96 95 97 96 98 98 99 98 94 93 95 96 84 97 97 98 98 98 92 77
97 98 98 99 97 91 82 83 85 88 88 91 93 94 94 93 93 93 94 87 88 94 96 96 92 81 97 96 94 96 95 86 87 96 98 98 97 98
98 99 99 99 99 98 98 94 91 89 91 92 92 92 93 92 91 90 90 90 88 91 90 96 96 98 99 96 97 96 96 96 83 77 79 81 94 98
100 99 99 98 99 99 98 98 95 92 91 92 92 92 92 94 88 88 88 86 87 92 92 97 98 98 97 97 96 98 96 94 98 98 96 74 75 76

GFSNE_sfc_rhum_105.txt.gz
RH
98 96 91 87 90 91 90 89 86 91 92 98 98 96 97 96 90 93 93 83 78 79 78 76 76 74 72 72 72 70 70 74 77 79 80 79 78 80
96 93 91 90 92 95 95 95 94 91 91 96 98 97 96 90 88 92 91 81 75 74 75 74 73 70 69 66 64 64 68 71 74 78 79 81 81 84
92 90 93 90 96 96 96 96 96 96 97 98 98 97 96 96 93 88 82 88 85 72 70 72 70 66 65 64 63 64 63 72 73 78 81 87 88 90
87 88 91 86 94 93 96 95 96 96 96 96 98 100 98 94 90 84 66 63 85 76 73 69 68 66 64 62 66 69 67 72 72 77 82 89 91 94
83 85 84 92 94 96 97 97 97 95 96 97 99 98 98 95 93 83 70 67 61 74 67 63 68 63 57 60 67 70 69 71 70 76 84 90 92 96
88 84 83 87 92 95 95 96 94 96 96 97 98 99 97 96 93 95 91 78 71 46 54 60 57 51 56 64 68 73 70 69 73 76 82 89 91 95
89 88 89 89 89 90 91 95 95 96 98 100 99 100 99 98 99 97 97 91 81 75 67 64 70 79 85 83 77 70 66 68 72 79 79 86 89 93
87 88 90 90 88 84 84 86 88 94 97 98 99 99 98 96 94 97 98 95 96 81 81 79 79 82 89 92 67 65 66 66 69 73 81 80 86 87
88 90 89 83 87 87 80 78 77 79 82 91 91 94 94 92 94 95 96 92 90 80 80 81 84 83 92 84 70 63 66 67 70 72 75 80 81 83
90 87 84 84 89 86 86 92 88 81 79 79 92 85 86 90 88 89 92 84 76 78 81 91 86 82 92 94 70 67 72 71 71 71 72 72 83 82
88 88 85 85 85 82 89 92 78 70 62 64 67 69 71 82 84 87 90 91 92 82 84 85 87 87 88 94 90 71 68 68 66 72 71 73 77 84
90 92 88 81 81 81 86 84 82 74 86 88 85 77 75 84 80 90 90 92 96 94 87 94 98 96 95 94 92 91 90 67 59 70 70 71 75 88
92 92 90 86 80 79 81 80 77 73 82 93 94 94 91 81 80 90 88 93 97 97 88 94 98 98 98 98 98 98 91 88 82 78 74 69 64 77
90 85 86 87 84 81 80 74 68 67 91 93 93 96 95 91 94 96 95 98 96 91 91 96 98 96 99 99 97 98 98 98 97 93 95 78 73 66
90 89 90 92 92 87 84 79 67 77 80 84 82 91 96 94 98 99 99 98 99 98 98 99 98 100 98 98 97 97 98 98 99 98 98 96 97 96
93 95 93 94 93 92 94 92 83 74 72 76 77 90 98 98 99 99 99 100 100 99 99 99 97 96 99 99 97 98 98 93 99 99 99 98 92 88
98 99 99 98 98 98 99 98 94 86 83 83 88 93 97 97 98 99 99 100 99 99 100 99 96 96 97 95 98 98 98 98 99 98 97 98 97 97
99 98 98 98 98 98 98 98 100 99 86 84 85 88 92 95 98 99 99 99 99 100 100 100 99 96 94 91 88 97 99 98 98 99 98 98 98 93
98 98 98 97 97 98 98 99 98 99 93 87 88 90 92 94 92 95 96 99 99 98 99 99 99 96 96 89 93 82 95 98 99 99 98 98 98 95
98 98 98 98 98 98 98 99 99 100 97 89 87 91 93 93 94 96 97 96 97 98 99 99 99 96 91 89 92 96 82 97 98 98 98 99 93 79
98 98 98 98 98 98 98 98 99 98 92 91 89 91 92 92 91 93 95 87 90 94 95 97 92 81 96 95 94 94 95 84 86 95 98 98 98 98
98 99 99 99 99 99 99 98 98 97 93 92 92 92 92 90 90 90 93 91 88 92 89 97 97 98 98 94 92 92 95 92 86 81 82 79 94 99
99 99 99 99 100 99 99 98 98 98 98 97 92 93 93 94 88 88 89 88 88 93 92 97 98 98 96 95 93 94 97 94 98 98 96 78 77 78

GFSNE_sfc_rhum_108.txt.gz
RH
98 98 97 95 92 90 87 84 85 88 94 97 99 98 98 97 92 95 94 84 79 79 77 76 76 73 72 71 68 66 67 71 69 70 75 76 77 75
98 99 98 94 92 93 94 92 89 86 86 97 99 98 97 91 90 93 92 83 78 75 75 74 73 70 69 66 65 64 63 63 70 68 75 77 80 79
98 98 96 91 91 97 96 96 96 94 94 99 98 98 98 97 96 92 90 92 88 74 71 72 71 67 66 64 65 68 67 65 70 70 78 80 85 86
98 97 96 94 94 94 94 96 96 96 96 96 99 100 99 96 92 88 73 71 88 77 73 71 70 67 64 62 65 68 69 70 71 70 79 83 88 92
98 98 96 95 94 97 97 97 97 97 97 97 100 99 98 95 93 84 73 70 70 77 73 66 69 66 57 58 67 69 72 70 71 74 78 85 90 92
96 96 96 95 95 98 98 97 97 98 98 98 98 99 98 97 95 96 95 82 77 53 62 56 60 54 56 66 69 71 70 68 68 72 78 84 90 91
94 92 93 93 94 95 95 98 97 97 98 100 99 100 99 99 99 98 98 95 88 77 66 67 66 72 82 82 80 73 68 66 68 71 79 83 89 91
92 91 90 94 93 92 90 90 89 93 95 98 99 99 98 97 95 98 99 98 99 87 80 73 76 79 84 93 76 65 64 66 69 72 75 84 87 88
91 92 92 89 94 95 92 92 91 89 87 86 96 95 97 92 96 98 98 96 94 84 78 84 84 81 88 87 76 64 65 67 71 72 75 81 89 86
91 90 87 88 90 90 92 94 92 92 92 93 92 92 90 87 85 90 94 90 76 77 76 86 87 81 89 96 82 65 71 70 71 72 74 76 85 88
87 87 86 86 84 88 90 95 91 83 67 75 80 83 81 83 88 93 94 91 87 83 83 79 89 88 91 95 91 74 66 64 64 72 73 75 76 82
86 89 88 86 83 86 88 89 91 80 78 79 80 76 79 85 86 91 92 94 95 93 85 87 97 96 93 93 94 91 92 70 66 72 72 70 73 90
89 92 92 88 86 86 87 85 85 73 77 89 91 93 91 92 97 95 92 92 93 94 86 90 99 99 97 98 98 98 94 89 85 82 74 72 66 78
90 84 86 91 92 89 89 87 80 74 92 90 94 96 96 92 94 97 92 95 92 89 88 94 96 96 99 99 96 98 98 99 98 97 98 80 74 70
93 89 91 92 94 94 91 88 84 87 86 88 89 93 96 94 96 98 98 98 99 97 95 98 96 100 97 97 98 98 96 96 98 98 98 98 98 98
91 96 93 93 93 94 94 94 97 96 97 96 91 92 95 96 95 97 100 100 99 99 99 100 98 96 99 98 97 98 96 93 98 99 98 99 94 89
90 99 99 99 99 99 99 98 98 99 99 98 98 96 92 94 94 96 97 100 97 100 100 99 98 96 97 95 98 96 95 97 98 98 96 98 97 97
95 98 98 98 98 98 98 98 98 98 98 98 98 96 95 96 96 99 98 98 99 99 98 100 100 97 95 92 84 93 96 97 98 99 98 98 96 93
98 98 98 98 98 98 98 98 98 98 98 98 98 97 97 94 90 95 98 98 99 99 98 100 99 96 94 84 94 79 93 98 99 99 99 98 97 95
98 99 98 97 98 98 98 98 99 99 98 98 98 97 96 94 94 95 94 93 96 98 100 100 98 96 89 86 92 95 81 94 96 98 99 99 93 80
97 98 98 98 98 98 98 98 98 98 98 98 97 97 96 92 92 93 94 88 90 95 96 97 93 78 97 94 93 95 96 80 84 94 98 98 98 97
97 98 98 99 98 98 98 98 98 99 98 98 98 97 94 90 90 92 91 90 90 91 94 98 97 97 98 93 94 93 94 91 87 80 79 79 94 96
97 98 98 98 99 98 98 98 98 98 98 98 98 97 93 92 87 88 90 87 89 94 94 98 99 97 96 94 93 94 92 91 89 94 97 82 78 76

GFSNE_sfc_rhum_111.txt.gz
RH
99 98 97 94 93 93 96 96 94 98 94 93 99 98 99 98 95 96 95 84 79 79 79 77 76 73 71 69 66 66 66 64 63 67 67 68 75 76
98 98 98 96 95 94 93 88 86 81 88 93 99 98 98 94 93 96 94 86 80 78 78 77 74 71 68 66 66 68 69 65 63 68 68 69 77 78
98 98 98 97 96 97 94 92 93 91 87 99 99 99 99 98 98 93 92 94 94 78 75 75 74 69 66 65 64 68 70 68 68 70 70 77 81 84
98 98 98 98 98 95 92 92 92 96 94 94 99 100 99 97 97 96 86 81 95 81 76 74 74 69 65 61 62 68 70 70 70 70 74 78 84 87
98 99 98 99 98 99 98 98 98 98 98 97 100 99 99 96 95 90 88 81 81 83 78 73 72 70 60 57 66 66 71 70 67 68 74 79 86 88
97 98 97 98 98 98 98 98 99 99 99 98 99 100 99 98 95 97 97 87 84 63 74 64 66 65 56 65 69 72 69 68 68 70 75 83 87 89
94 94 95 96 96 96 97 98 98 98 99 99 100 99 100 99 99 98 99 98 89 80 70 72 75 71 70 76 77 74 67 67 68 70 73 83 87 89
94 94 95 95 96 95 94 95 94 97 98 99 99 99 99 98 99 99 99 99 99 94 82 80 72 76 77 89 80 66 64 66 70 71 73 82 88 88
94 91 91 95 94 95 95 95 95 93 86 90 96 95 98 96 97 99 98 97 97 92 84 88 80 76 79 82 78 66 64 67 71 72 73 78 86 89
94 93 93 92 91 95 96 100 98 97 95 96 92 92 88 90 88 91 94 93 81 80 79 89 83 77 85 96 82 67 69 68 68 72 74 75 79 86
88 87 90 92 88 87 96 97 97 96 79 86 86 84 84 85 88 93 97 96 92 83 82 76 85 85 89 95 92 76 68 62 64 71 72 72 74 82
87 86 87 88 86 86 96 95 98 95 93 89 90 86 86 89 86 88 94 100 94 94 83 86 94 92 93 91 95 93 92 70 68 72 73 70 74 89
93 90 88 87 90 90 92 94 92 89 86 83 87 92 92 92 98 97 94 96 94 96 85 88 98 99 96 97 98 98 93 90 86 83 74 72 73 78
89 87 89 88 91 93 92 92 87 86 90 84 84 87 91 95 96 97 94 88 86 93 83 92 95 96 98 99 95 98 99 99 98 97 98 80 73 72
85 85 89 93 91 93 94 94 93 96 90 89 86 87 91 93 97 99 99 98 99 97 93 96 94 96 96 96 97 98 98 99 99 99 99 97 95 93
82 87 87 89 93 94 96 97 98 96 93 93 98 98 98 97 96 98 99 100 99 100 98 99 95 93 98 98 96 98 99 97 100 99 99 98 91 85
83 90 96 98 98 98 99 99 99 98 99 99 98 98 97 97 96 97 98 98 96 99 100 98 94 92 96 95 96 98 98 98 99 99 95 98 97 91
89 98 98 98 98 98 98 98 98 98 98 99 98 98 97 97 97 97 97 98 96 97 98 100 99 94 90 85 82 97 98 98 98 97 96 96 95 94
92 97 98 98 98 98 98 98 99 98 99 98 98 98 97 98 97 97 97 96 94 95 99 99 98 93 91 80 96 77 96 98 98 97 95 95 94 95
86 95 98 98 98 98 98 99 99 99 98 98 98 97 97 97 97 97 96 95 95 99 100 100 96 95 87 84 94 98 79 96 97 97 98 96 91 79
87 91 94 98 98 99 99 99 99 98 98 97 97 95 96 96 97 96 95 93 88 96 98 97 90 71 97 96 94 97 97 76 83 93 98 97 98 96
79 90 90 97 98 99 100 99 99 99 99 98 97 96 97 97 96 94 94 94 91 90 93 98 96 96 98 94 94 95 98 95 82 77 76 77 93 93
90 92 96 97 98 98 99 99 99 98 99 98 97 97 97 97 97 94 92 89 91 95 95 99 98 98 96 93 90 96 96 95 99 97 97 80 75 71

GFSNE_sfc_rhum_117.txt.gz
RH
96 93 93 96 98 98 97 96 97 97 90 86 95 95 97 97 96 97 97 94 86 81 80 84 82 79 76 72 67 66 67 68 68 66 67 67 65 65
99 98 93 92 95 97 97 96 97 98 98 88 94 97 95 98 96 97 97 96 88 82 83 84 81 78 75 71 67 67 68 69 68 67 67 66 66 70
99 98 98 97 98 98 99 98 98 98 98 95 96 97 97 98 98 98 97 96 93 88 82 83 82 79 75 72 69 67 67 68 68 66 67 68 68 78
96 96 97 98 99 98 99 98 98 96 99 98 99 100 99 96 95 97 97 94 94 90 84 82 81 79 76 72 68 67 67 68 68 67 69 70 71 81
82 84 83 83 87 93 97 98 99 99 98 98 99 98 99 98 99 98 96 94 91 90 88 85 81 81 77 73 67 68 67 65 68 67 70 71 78 84
78 79 78 81 83 86 88 91 95 99 99 98 99 99 98 98 97 97 99 97 96 90 90 89 85 82 81 76 68 72 68 68 68 68 71 70 81 84
79 78 79 84 91 86 86 86 91 98 98 99 98 99 99 99 97 96 96 96 97 94 95 94 88 83 81 72 74 72 70 68 68 70 71 71 80 84
82 79 80 86 82 86 87 90 92 97 98 98 98 98 97 94 92 97 96 99 99 94 96 94 83 79 71 72 71 68 71 68 69 71 71 71 79 83
86 85 83 78 84 80 82 86 87 90 95 95 98 97 94 92 91 99 97 98 98 97 94 91 75 78 69 61 70 69 70 69 69 71 72 71 74 82
81 76 76 75 76 81 81 88 84 80 81 88 94 93 90 88 91 92 94 96 96 95 87 95 72 72 64 62 70 74 70 69 66 71 71 71 71 77
64 64 70 69 77 83 86 95 93 90 82 91 94 96 95 95 94 99 99 99 99 97 92 87 79 74 68 65 67 77 71 72 64 72 74 72 71 71
57 58 65 67 75 75 78 87 96 92 92 92 97 97 97 98 97 96 97 100 100 98 96 94 84 78 85 67 70 75 66 70 68 68 69 72 73 57
68 63 60 70 71 71 74 77 84 84 91 97 97 98 99 99 99 98 96 99 100 100 82 89 93 83 79 80 77 80 77 68 62 59 68 70 73 71
69 65 65 72 73 72 73 78 80 84 91 99 99 98 98 99 100 100 99 100 99 100 92 98 96 92 92 84 79 85 85 78 74 67 70 70 73 72
65 67 71 70 71 72 74 78 83 89 94 99 98 98 98 100 100 100 100 99 100 100 100 99 95 92 96 91 85 86 89 85 85 87 76 69 67 67
75 78 71 69 70 73 79 82 88 94 98 98 98 99 99 99 99 99 98 99 98 97 98 98 96 93 86 83 84 88 83 91 88 84 81 78 66 62
73 73 78 80 82 81 85 88 94 96 98 100 100 99 98 98 98 98 98 98 98 97 97 97 90 88 87 89 86 81 80 85 87 88 79 79 75 68
72 79 80 81 83 80 88 90 91 97 98 100 100 99 98 98 98 97 97 98 97 96 96 96 97 96 83 78 74 82 81 86 88 86 78 79 79 72
76 80 83 82 84 86 87 92 94 97 100 100 100 99 98 98 98 97 96 97 96 95 96 96 96 96 90 90 82 73 86 85 87 83 78 74 82 80
76 78 81 80 85 87 87 91 93 96 98 99 99 99 98 98 98 96 97 97 96 96 96 96 97 95 92 92 92 89 74 89 84 84 86 83 79 76
78 80 80 82 86 87 88 91 93 94 98 99 99 99 98 97 97 94 96 95 95 95 95 94 93 88 95 93 89 87 86 78 77 88 89 82 78 74
81 82 83 86 88 91 92 92 92 92 96 98 99 100 99 100 97 94 95 96 96 96 96 96 96 95 92 80 88 90 88 84 77 76 72 76 94 88
85 87 82 84 86 87 88 93 92 93 98 98 99 99 98 97 96 95 94 94 95 96 95 95 94 89 83 88 91 92 90 87 83 84 84 72 78 79

GFSNE_sfc_rhum_123.txt.gz
RH
97 94 97 96 98 98 99 98 96 97 88 76 86 92 93 96 94 94 93 90 93 90 89 88 90 90 87 85 84 81 78 74 74 74 74 72 71 70
97 99 99 99 99 99 99 98 98 98 98 92 95 93 93 95 93 94 93 94 94 92 92 93 93 90 89 88 86 81 77 76 75 75 74 73 72 70
99 99 99 97 99 99 99 99 99 99 98 97 97 95 95 96 94 94 95 95 95 95 93 95 92 90 91 89 86 80 78 77 76 75 74 73 72 71
90 90 90 88 93 96 97 96 97 96 99 98 98 98 98 94 95 96 96 98 97 95 95 95 94 93 92 89 86 82 80 78 76 75 74 73 73 72
88 87 84 80 81 80 79 83 88 85 90 92 91 90 97 95 95 95 97 98 98 96 94 94 96 95 93 92 90 86 82 78 77 76 73 72 73 72
69 70 70 73 76 82 79 81 77 82 82 83 83 88 91 92 97 97 91 95 96 93 94 92 94 96 94 92 92 89 86 80 78 75 71 72 73 72
63 60 67 77 82 79 78 76 76 79 82 85 89 85 83 90 98 90 95 91 90 95 96 95 96 97 97 94 93 93 89 81 81 76 73 71 72 71
66 63 59 65 65 70 74 76 70 77 79 81 86 83 80 86 86 91 94 96 96 96 98 97 95 96 96 96 93 93 88 85 85 80 77 73 72 72
62 59 52 44 57 61 62 63 65 69 72 70 81 82 84 81 85 92 92 97 95 91 99 98 97 98 94 97 95 95 92 92 88 82 77 73 71 73
53 50 51 53 60 66 66 69 65 62 62 62 71 75 78 79 82 88 94 97 95 99 99 99 99 99 99 98 94 96 93 90 86 84 83 75 73 73
49 49 53 54 66 68 71 75 68 67 62 69 68 74 77 78 81 91 98 98 97 97 99 100 99 99 99 99 98 93 92 90 85 81 72 70 73 75
48 47 58 60 68 66 67 68 74 72 72 72 76 76 74 74 79 85 96 100 93 100 97 99 99 98 99 99 99 98 98 91 88 82 69 73 72 87
52 50 49 63 69 68 67 66 72 71 72 81 87 86 86 87 88 89 95 100 100 100 96 99 100 100 100 99 100 100 99 97 94 82 72 69 72 78
59 55 62 69 67 68 67 67 69 71 71 82 89 97 98 94 94 97 96 98 99 100 98 100 100 100 100 99 98 100 100 99 99 96 91 65 69 68
59 65 67 65 66 66 65 66 66 76 79 82 83 89 98 99 100 100 99 100 100 98 100 100 100 100 100 99 99 99 99 100 100 98 96 93 94 84
65 71 65 63 62 65 66 68 73 79 75 86 89 88 98 100 99 100 99 100 99 98 98 100 100 100 100 100 100 99 99 99 99 98 96 94 80 81
70 77 77 76 77 77 77 78 81 81 82 86 88 91 96 99 98 100 99 99 99 98 98 98 99 99 99 100 99 99 99 99 96 96 94 95 95 86
78 81 77 76 77 77 78 80 80 75 82 86 90 92 95 98 98 99 99 99 98 98 99 98 98 98 99 98 99 99 99 98 98 96 95 97 97 84
77 80 80 79 77 74 80 83 86 82 86 90 91 92 95 97 98 98 99 99 98 99 99 98 98 99 98 98 98 94 98 98 95 93 96 97 97 92
78 79 80 79 74 83 85 88 89 88 89 90 92 92 95 98 97 97 98 98 98 99 98 99 98 99 99 98 98 98 92 94 90 94 98 94 90 79
77 76 75 77 84 86 88 89 91 92 90 93 93 94 94 97 98 98 98 97 97 97 98 98 99 98 98 98 97 96 98 93 92 96 95 95 95 91
75 76 76 83 86 91 91 90 93 91 86 88 93 94 92 95 98 98 98 98 98 98 99 99 99 98 99 99 95 96 96 98 87 83 80 83 96 95
76 77 80 87 88 91 91 90 91 92 88 91 95 95 91 94 97 98 98 99 97 99 97 98 98 99 99 95 92 94 96 95 91 93 94 80 80 84

GFSNE_sfc_rhum_126.txt.gz
RH
97 96 97 97 96 94 94 91 90 94 89 86 90 91 95 96 96 95 96 95 93 92 91 91 91 90 90 91 89 87 82 85 81 79 76 75 74 73
99 98 97 98 98 98 99 99 99 98 98 95 94 94 94 95 94 95 96 96 94 92 92 91 92 92 91 91 90 86 86 86 82 78 77 76 74 72
98 99 98 97 98 98 97 98 99 99 99 98 98 96 95 95 94 94 96 98 97 94 91 92 92 92 93 92 92 88 88 86 81 80 77 76 74 72
94 93 92 90 94 93 92 92 95 96 98 96 94 96 96 95 96 97 95 96 97 90 90 88 87 91 94 95 93 94 92 89 86 83 81 76 75 74
87 87 86 86 89 87 85 89 91 86 93 94 94 91 92 94 93 93 90 93 90 88 86 86 86 87 91 93 93 95 93 93 91 87 84 80 76 74
75 80 78 81 83 87 87 91 86 92 92 91 89 91 94 89 98 97 94 94 93 90 90 90 88 88 88 91 93 95 94 94 90 87 84 82 77 76
75 71 76 80 74 78 85 90 86 88 92 90 85 81 83 80 82 88 89 85 79 92 92 96 96 96 93 88 91 97 96 94 91 87 87 85 81 78
78 73 68 69 74 69 70 69 71 85 91 90 93 87 77 79 85 89 86 88 90 85 98 93 97 96 95 95 90 95 96 94 92 91 92 89 83 81
70 69 58 60 75 73 72 71 72 70 69 82 91 90 88 85 91 89 89 91 91 84 96 94 95 92 90 92 90 92 96 95 94 92 92 89 84 80
65 65 67 69 75 74 77 81 76 76 74 70 87 80 75 76 84 86 92 90 86 89 97 98 96 97 96 97 93 92 94 96 94 92 92 91 90 89
60 62 64 71 68 66 74 80 72 68 59 64 66 67 72 74 76 87 93 95 93 87 96 99 94 99 99 98 98 90 90 96 95 93 92 91 90 87
63 58 59 67 66 66 79 84 82 75 69 70 74 88 80 86 83 91 96 100 99 98 96 100 100 99 99 99 99 98 98 94 91 92 90 87 84 90
70 66 64 64 69 67 68 83 77 65 70 72 78 75 80 87 90 91 95 99 100 99 97 100 100 100 100 99 99 99 99 99 99 97 93 95 95 87
79 72 77 70 66 66 69 66 65 70 89 80 84 83 87 92 94 98 98 98 98 99 98 100 100 100 100 99 98 99 100 100 99 100 100 99 85 85
76 72 69 67 66 70 67 65 66 89 93 88 87 89 89 88 97 99 99 100 100 98 99 100 100 100 100 99 99 99 99 99 100 99 100 99 97 87
74 86 75 68 63 66 74 81 86 90 84 87 88 87 86 93 97 100 99 98 99 98 97 98 100 100 99 99 99 99 100 99 100 99 99 97 85 90
75 89 91 89 87 87 87 88 91 80 84 87 90 92 93 92 92 98 99 99 98 97 95 98 98 99 99 99 99 99 99 99 99 99 96 96 93 89
86 96 96 96 96 94 84 82 85 80 86 90 93 95 96 96 95 94 99 99 98 98 99 99 100 99 99 97 98 99 99 99 99 99 96 97 95 90
92 94 95 96 96 93 82 86 92 83 88 93 94 95 95 94 94 95 96 98 98 99 99 99 99 98 99 98 98 96 99 99 98 98 98 98 98 97
94 96 95 96 95 86 84 86 87 84 88 92 95 94 94 95 96 95 98 98 98 99 99 99 99 99 99 97 98 98 87 97 96 99 97 95 92 80
86 93 85 79 80 82 82 87 92 92 91 94 93 94 94 95 94 95 97 97 98 99 98 99 98 91 98 97 97 97 98 88 91 98 97 93 94 92
74 77 78 79 86 87 90 91 93 93 93 94 94 94 93 95 95 94 96 98 98 98 98 99 99 99 99 98 96 97 98 98 89 82 80 82 92 94
78 80 83 82 86 85 86 94 95 94 91 93 95 94 94 95 93 94 96 98 99 99 98 99 99 99 98 96 94 96 97 97 97 95 95 84 86 85

GFSNE_sfc_rhum_129.txt.gz
RH
96 97 94 92 96 95 96 95 92 97 92 88 93 92 96 97 96 95 94 94 91 90 90 92 92 90 83 84 86 90 89 88 87 83 85 83 80 78
98 99 98 99 99 99 99 99 98 95 98 95 98 98 96 95 95 95 95 97 92 88 88 91 90 91 91 90 91 91 91 91 87 84 84 84 81 80
99 99 98 98 98 98 97 97 97 97 98 97 96 92 92 92 91 92 93 94 96 86 80 79 81 84 85 87 90 90 92 91 90 87 86 83 82 81
97 97 96 89 93 92 93 94 93 95 96 96 94 94 90 90 91 93 94 95 95 85 81 83 84 84 83 80 85 88 90 93 92 91 91 88 85 81
95 94 93 89 92 94 93 94 92 83 92 94 95 93 94 92 92 93 94 94 91 88 83 80 81 81 84 85 86 88 91 91 92 94 93 92 88 85
85 79 78 75 81 87 85 87 83 91 92 94 94 94 92 90 95 93 92 93 93 73 71 74 81 86 86 84 86 90 90 91 93 95 95 94 93 88
78 74 81 84 82 77 81 88 88 91 93 95 95 94 95 93 94 94 93 92 89 87 84 94 87 91 95 86 89 91 90 88 91 94 95 94 92 90
74 71 76 77 74 72 72 71 76 88 92 94 95 96 94 94 93 95 84 89 91 88 95 89 94 90 86 92 88 88 88 88 90 96 96 94 94 92
73 71 69 70 77 76 73 72 73 68 69 87 94 95 94 91 93 92 92 94 92 85 89 92 86 91 88 88 85 88 89 90 91 92 95 96 93 90
71 70 72 79 75 76 80 84 81 77 75 74 85 77 72 68 84 88 93 95 93 90 92 95 89 93 89 93 84 86 85 88 88 91 93 96 93 92
65 66 72 78 68 68 81 88 86 80 63 64 66 66 73 75 78 87 94 98 97 91 92 96 95 98 96 90 95 87 87 86 89 89 94 94 94 91
70 65 62 67 67 67 82 91 94 90 77 79 81 75 66 68 75 86 97 99 98 98 96 100 95 100 100 99 96 95 97 91 88 94 94 92 92 97
84 79 75 67 69 66 67 85 82 65 80 92 93 83 74 75 84 86 89 99 98 98 96 100 100 100 100 100 98 99 99 98 99 98 93 92 95 96
88 84 82 74 67 66 70 67 65 73 92 94 83 84 84 86 86 89 92 98 98 99 98 100 100 100 100 99 98 97 99 99 99 99 99 98 96 97
82 77 70 71 71 72 67 65 69 91 94 86 85 85 88 87 89 93 95 96 100 99 99 100 99 99 100 99 99 98 99 99 100 100 100 100 100 99
79 88 80 75 72 71 77 81 86 92 85 87 90 90 90 92 94 92 96 98 98 95 97 98 99 99 99 99 99 97 99 99 100 99 100 98 88 92
77 91 92 91 90 89 88 89 90 93 88 92 93 94 93 93 92 91 95 98 99 97 96 96 98 99 99 100 99 99 99 99 100 99 98 97 90 92
77 84 96 98 97 96 91 90 78 85 89 90 92 94 95 95 93 92 94 96 98 97 98 98 98 98 99 97 98 99 99 99 99 99 98 97 95 92
79 81 96 98 97 97 97 84 87 85 90 95 94 94 95 95 92 94 94 96 95 97 97 99 98 98 98 98 97 96 99 98 99 98 98 99 97 94
79 88 96 97 97 88 80 89 84 88 90 91 96 96 96 97 95 94 94 96 96 96 97 99 98 98 98 98 98 97 88 98 99 99 99 99 94 77
72 75 80 83 84 79 83 87 91 89 89 97 94 96 96 97 94 94 95 87 90 98 98 96 97 86 99 98 98 97 99 84 88 97 98 97 96 94
73 74 78 78 87 82 86 85 90 92 97 97 94 94 95 96 95 95 94 96 93 98 98 99 99 98 99 98 97 98 98 98 88 82 79 82 96 95
84 82 86 84 90 87 84 97 98 96 97 96 96 94 94 95 92 94 94 94 94 98 98 99 99 99 98 98 96 98 98 97 99 98 98 84 83 86

GFSNE_sfc_rhum_132.txt.gz
RH
97 97 96 94 95 95 95 96 98 98 97 90 94 98 99 98 97 95 96 94 87 82 79 81 84 84 84 82 82 80 81 83 86 87 86 85 84 83
98 98 97 97 98 98 99 99 99 98 99 98 99 98 96 95 96 91 90 92 85 77 73 81 81 78 76 77 77 79 79 82 86 86 85 86 83 87
98 97 99 98 99 98 97 97 97 98 99 100 99 98 95 94 87 86 88 90 92 81 77 77 78 79 79 79 80 80 79 80 82 85 86 84 84 88
96 96 96 91 96 96 96 96 95 94 97 97 96 96 92 84 84 85 91 88 94 84 73 65 64 63 69 79 82 83 84 81 83 83 86 87 85 86
91 92 93 92 96 96 96 95 95 91 95 95 93 91 92 90 91 92 89 92 89 79 70 67 63 68 72 70 74 77 82 81 80 84 87 89 90 91
88 88 86 86 88 89 85 87 84 91 91 92 93 94 95 92 94 95 92 93 92 77 75 72 75 74 76 77 77 81 84 84 83 82 85 89 93 95
82 81 84 84 81 78 83 88 88 91 93 93 93 95 94 93 94 96 96 89 85 85 90 89 85 88 89 79 80 81 83 81 82 83 84 86 90 94
75 80 80 79 74 71 70 70 74 87 94 96 97 96 94 96 95 96 88 85 92 87 92 89 92 88 85 85 78 78 80 81 83 84 86 87 90 95
75 79 75 72 77 78 73 72 71 67 67 86 94 94 96 92 78 84 86 95 95 87 94 93 92 93 87 84 82 82 80 82 84 85 86 86 89 92
74 72 80 81 76 78 81 85 85 82 79 74 87 87 73 76 82 84 92 93 91 91 94 95 90 95 93 93 85 82 85 83 83 83 83 84 89 91
68 72 77 79 68 67 85 90 91 85 67 65 70 70 67 65 69 86 97 98 90 87 85 98 96 95 85 91 95 82 82 82 84 86 92 89 91 96
80 73 65 73 69 67 88 92 91 88 88 88 86 84 79 70 66 80 90 98 98 97 96 99 97 100 97 99 96 93 95 86 90 92 96 96 94 96
88 87 82 69 70 65 67 86 84 73 83 92 94 92 90 82 77 74 83 94 98 98 91 99 99 98 100 99 99 97 99 98 96 97 97 92 92 96
90 91 88 73 71 69 72 64 66 78 90 92 93 82 83 80 92 89 91 94 96 99 97 100 99 99 99 98 98 98 97 99 99 99 99 98 96 96
89 80 71 72 75 76 67 65 74 90 93 95 87 89 92 91 94 93 91 94 98 98 99 100 99 99 99 98 98 96 97 99 98 99 99 99 99 100
79 89 81 77 72 74 78 80 85 91 92 88 88 94 95 96 95 93 94 93 96 94 93 96 98 99 98 98 96 97 97 99 99 99 99 98 97 98
76 82 87 86 90 90 88 88 91 88 97 94 94 92 96 96 94 92 93 94 97 96 94 94 96 98 98 99 97 99 99 100 99 99 99 98 94 91
80 81 76 80 96 96 91 97 95 83 93 92 93 94 96 96 96 92 94 94 96 94 95 94 99 98 97 96 90 97 99 100 99 99 99 98 96 89
87 83 82 88 95 96 97 98 93 89 94 96 97 96 96 94 93 95 90 90 93 93 95 97 99 98 99 99 96 82 100 99 99 98 98 99 98 96
89 83 88 90 92 96 84 90 92 90 94 94 98 98 96 97 96 95 94 95 95 92 95 98 99 98 98 97 98 97 89 99 99 99 99 98 94 83
91 92 84 87 88 90 92 94 92 94 92 100 99 99 98 96 95 94 95 87 90 94 95 96 97 95 98 98 98 98 98 85 88 97 99 98 98 94
93 84 86 90 91 93 94 94 94 92 97 98 99 98 96 96 96 94 93 95 93 96 95 96 98 99 98 98 98 98 98 98 90 82 95 99 99 97
91 86 90 90 92 92 93 92 96 96 98 98 98 98 98 96 92 94 94 93 95 95 95 97 98 98 98 98 96 98 98 99 99 99 99 88 82 92

GFSNE_sfc_rhum_135.txt.gz
RH
96 97 98 98 98 97 97 97 97 96 90 96 98 98 98 97 95 94 91 90 83 79 75 75 78 78 77 75 75 75 75 75 74 75 79 80 81 84
98 99 99 98 98 98 98 97 97 98 97 97 99 99 96 94 93 93 94 94 84 78 73 75 76 76 75 75 75 74 74 74 74 77 78 82 83 82
96 98 98 98 99 99 98 97 98 99 98 99 99 98 96 91 89 90 93 88 90 77 73 68 66 64 62 66 71 74 76 76 75 74 74 75 78 84
95 95 95 90 96 94 94 96 95 95 98 98 98 97 96 90 88 89 83 82 87 74 68 67 66 65 69 72 70 72 74 74 73 74 76 76 77 78
89 89 90 90 94 94 94 94 95 91 95 95 95 96 96 90 85 87 86 88 80 72 70 70 72 68 66 64 67 73 73 76 78 78 78 78 80 81
86 87 87 86 87 89 86 86 83 90 91 92 92 93 93 91 92 95 90 91 88 74 75 76 71 71 72 73 73 74 76 80 76 75 76 77 80 82
84 83 86 85 79 76 79 84 85 89 92 92 93 93 95 94 96 95 90 85 83 91 94 82 86 86 87 79 80 78 78 78 75 77 78 79 79 79
84 84 78 78 73 71 70 69 73 87 92 96 97 96 94 96 95 90 83 85 93 90 93 87 92 90 87 87 79 77 77 76 78 80 77 78 80 80
84 83 77 74 79 80 74 74 74 68 70 90 94 94 95 90 82 90 94 93 92 83 90 92 86 91 87 85 81 78 80 82 80 80 80 79 81 83
79 85 85 86 81 83 86 90 89 82 81 76 88 89 86 83 80 82 91 94 92 94 91 92 88 93 92 86 77 81 82 77 79 81 80 82 86 89
78 80 81 84 67 73 86 88 86 84 70 72 69 68 68 67 66 84 94 94 90 86 91 99 98 92 88 89 94 83 75 79 82 83 86 92 94 93
84 81 67 77 67 67 89 88 89 91 91 86 85 84 82 82 66 75 84 94 95 94 98 98 95 97 98 99 94 83 94 88 86 86 90 91 92 95
86 88 86 69 69 66 74 85 82 89 84 89 91 91 87 88 86 88 88 95 97 96 86 97 99 97 99 97 95 87 94 91 97 96 93 97 92 93
90 92 89 73 70 70 75 63 69 77 88 91 93 94 95 95 94 95 95 94 94 94 90 99 99 99 99 96 90 92 92 87 98 95 98 93 88 88
90 83 71 72 75 79 68 66 75 87 90 94 96 98 98 95 96 98 95 93 93 94 94 100 99 99 99 98 97 94 97 89 98 98 100 100 99 100
76 87 80 78 74 74 78 80 84 90 93 98 99 97 98 98 98 98 96 94 93 89 92 94 95 99 98 97 97 97 93 98 98 98 99 98 96 95
84 90 86 80 84 90 89 88 91 95 92 98 98 97 96 98 95 98 99 94 96 91 93 90 95 98 98 98 98 95 94 95 99 98 100 99 96 94
86 95 93 87 83 85 92 95 96 88 84 86 96 99 98 97 96 95 98 92 93 91 94 92 97 98 96 92 93 97 92 99 99 99 100 100 96 89
94 96 94 87 88 89 94 98 91 80 82 96 100 99 99 98 94 97 98 97 92 94 93 92 98 98 98 100 93 84 98 95 98 99 100 99 100 95
95 94 95 93 86 92 92 89 87 81 92 95 98 99 100 100 96 96 97 97 96 94 93 92 97 98 98 97 98 97 86 100 98 99 99 97 94 80
92 95 95 96 90 90 84 88 93 95 94 98 100 100 98 100 97 96 97 89 89 94 95 94 91 87 99 98 98 97 96 91 92 98 98 99 98 94
94 94 94 94 92 94 95 95 96 94 98 98 98 99 98 99 97 96 95 96 94 95 95 93 92 98 98 98 98 98 98 98 90 93 99 100 99 98
92 94 94 92 93 94 94 96 96 97 98 98 99 98 98 97 95 94 94 93 94 95 94 94 94 99 99 98 97 99 99 98 98 99 99 97 92 100

GFSNE_sfc_rhum_138.txt.gz
RH
98 99 98 98 98 98 99 98 97 98 94 94 99 97 96 93 93 92 94 89 85 82 82 84 87 84 78 73 71 71 71 70 70 70 73 73 75 77
99 98 98 98 98 98 99 99 99 99 98 96 99 97 91 85 84 89 90 88 85 86 87 84 78 71 66 62 64 66 69 69 70 70 69 71 69 70
95 95 96 95 97 96 96 96 96 98 99 100 98 97 94 92 89 91 88 90 90 76 72 71 66 66 66 68 70 71 70 70 69 70 71 70 70 68
94 93 94 89 95 93 93 94 94 94 98 98 97 97 96 92 92 90 84 81 88 75 68 68 68 68 66 67 66 65 67 69 71 73 72 71 70 71
89 91 91 89 93 92 91 93 93 86 92 94 96 96 96 86 88 85 83 86 77 72 70 72 69 68 69 69 70 71 72 74 76 73 71 72 72 74
88 85 82 82 84 86 85 84 81 87 87 90 89 93 94 91 92 92 91 89 86 73 75 75 74 74 76 75 74 77 79 75 74 73 73 75 78 77
85 80 82 79 75 72 77 81 82 86 88 89 92 91 96 95 96 94 91 85 81 91 93 85 87 86 88 81 80 79 72 75 76 78 75 73 72 74
81 80 78 79 72 70 69 68 73 86 90 94 96 96 94 95 94 92 94 94 95 93 89 85 91 86 89 93 78 76 77 80 79 76 77 78 75 73
90 88 82 75 81 83 76 76 72 70 75 89 93 95 95 92 92 90 86 91 96 88 95 94 92 90 91 86 79 75 76 79 73 75 76 77 78 80
89 90 91 90 87 85 88 87 85 86 84 81 91 90 90 89 89 86 90 95 94 90 93 96 93 95 82 86 78 77 80 75 75 79 79 79 88 89
87 87 88 86 70 74 87 85 87 87 72 69 68 68 69 70 70 87 95 95 93 89 92 99 96 89 83 90 95 80 70 70 77 78 81 82 87 88
89 88 74 82 66 78 88 87 91 92 90 82 82 82 81 82 67 85 96 100 98 98 97 96 98 98 97 97 96 93 93 81 74 78 86 82 85 93
83 86 84 70 69 66 76 88 86 88 80 87 91 90 88 90 90 91 94 100 97 96 87 92 99 96 99 96 97 95 95 90 89 90 89 91 84 84
89 92 89 76 70 70 74 64 74 74 83 86 89 92 95 92 94 96 95 97 97 96 91 96 99 99 98 93 94 95 88 86 92 94 92 88 90 88
90 85 76 72 74 78 70 66 73 84 88 93 96 97 97 97 96 97 95 94 94 91 90 94 99 99 99 97 96 92 91 91 90 99 95 97 97 96
81 86 82 80 73 76 78 79 83 89 92 98 98 98 98 98 99 99 100 99 95 97 89 93 96 99 97 97 97 94 91 97 90 90 91 91 94 93
88 92 91 87 86 84 88 89 90 92 96 98 98 99 99 99 98 98 99 97 94 94 92 89 90 95 96 98 98 94 95 95 92 97 96 93 91 90
89 95 96 95 94 90 88 92 94 88 88 81 84 99 100 100 98 98 98 100 98 92 95 93 94 92 96 90 91 96 96 92 90 95 97 98 98 89
91 95 96 95 96 95 91 93 93 83 83 92 84 99 99 99 97 98 98 98 96 96 95 96 95 97 98 99 92 81 100 96 94 89 98 100 96 93
96 97 96 93 96 97 95 92 89 92 90 83 95 99 100 100 99 99 98 100 97 95 95 93 97 97 97 97 98 95 87 98 97 92 99 98 92 83
94 95 93 95 95 95 95 91 94 94 90 92 100 100 100 100 100 99 99 89 90 96 96 95 92 84 96 98 98 96 94 86 92 99 98 100 98 96
92 94 95 94 94 95 96 96 96 94 91 98 98 100 100 100 99 98 97 98 95 96 96 93 92 94 98 98 98 98 97 97 88 89 97 100 99 98
94 95 96 95 95 96 96 97 96 95 97 97 98 99 100 99 98 97 98 95 95 95 95 94 93 97 99 98 96 99 98 98 99 98 99 100 100 100